IW9BHU-13 Weather Reports


time (UTC)temp
F
wind
direction
speed
knots
gust
knots
rain 1hr
in
rain 24hr
in
rain mn
in
humidity
%
barometer
mb
20260906080004 86 16 5.2 10.4 0.00 0.00 0.00 62 1017.7
20260906075904 86 18 5.2 10.4 0.00 0.00 0.00 62 1017.7
20260906075804 86 17 5.2 10.4 0.00 0.00 0.00 62 1017.8
20260906075704 86 15 5.2 10.4 0.00 0.00 0.00 61 1017.8
20260906075604 87 17 5.2 10.4 0.00 0.00 0.00 62 1017.8
20260906075504 87 17 5.2 10.4 0.00 0.00 0.00 62 1017.7
20260906075404 87 18 6.1 10.4 0.00 0.00 0.00 63 1017.7
20260906075306 86 19 6.1 12.2 0.00 0.00 0.00 63 1017.8
20260906075204 86 18 6.1 12.2 0.00 0.00 0.00 63 1017.7
20260906075104 86 19 6.1 12.2 0.00 0.00 0.00 63 1017.7
20260906075004 86 18 6.1 12.2 0.00 0.00 0.00 63 1017.7
20260906074912 86 20 6.1 13.0 0.00 0.00 0.00 63 1017.7
20260906074815 86 20 6.1 13.0 0.00 0.00 0.00 64 1017.7
20260906074707 86 23 6.1 13.0 0.00 0.00 0.00 64 1017.7
20260906074620 86 25 6.1 13.0 0.00 0.00 0.00 64 1017.7
20260906074505 86 28 6.1 13.0 0.00 0.00 0.00 64 1017.6
20260906074405 86 28 6.1 13.0 0.00 0.00 0.00 64 1017.7
20260906074304 86 25 6.1 13.0 0.00 0.00 0.00 64 1017.7
20260906074204 86 22 5.2 13.0 0.00 0.00 0.00 64 1017.6
20260906074106 86 21 5.2 13.0 0.00 0.00 0.00 64 1017.6
20260906074005 86 20 5.2 13.0 0.00 0.00 0.00 64 1017.7
20260906073905 86 18 5.2 10.4 0.00 0.00 0.00 65 1017.6
20260906073804 86 18 5.2 10.4 0.00 0.00 0.00 65 1017.6
20260906073704 86 16 6.1 10.4 0.00 0.00 0.00 65 1017.7
20260906073605 86 14 6.1 13.9 0.00 0.00 0.00 65 1017.7
20260906073504 85 15 5.2 13.9 0.00 0.00 0.00 65 1017.7
20260906073423 85 15 5.2 13.9 0.00 0.00 0.00 65 1017.7
20260906073321 86 15 5.2 13.9 0.00 0.00 0.00 65 1017.7
20260906073210 85 15 5.2 13.9 0.00 0.00 0.00 66 1017.7
20260906073127 85 14 5.2 13.9 0.00 0.00 0.00 66 1017.7
20260906073004 85 9 5.2 13.9 0.00 0.00 0.00 66 1017.7
20260906072904 85 12 5.2 13.9 0.00 0.00 0.00 65 1017.7
20260906072804 85 12 5.2 13.9 0.00 0.00 0.00 65 1017.7
20260906072704 85 12 5.2 13.9 0.00 0.00 0.00 65 1017.7
20260906072604 85 11 5.2 11.3 0.00 0.00 0.00 65 1017.7
20260906072504 85 4 5.2 10.4 0.00 0.00 0.00 65 1017.7
20260906072404 86 360 5.2 10.4 0.00 0.00 0.00 66 1017.6
20260906072306 86 3 5.2 10.4 0.00 0.00 0.00 66 1017.6
20260906072204 86 8 4.3 10.4 0.00 0.00 0.00 66 1017.6
20260906072104 86 12 4.3 10.4 0.00 0.00 0.00 65 1017.6
20260906072004 86 17 4.3 10.4 0.00 0.00 0.00 66 1017.6
20260906071909 85 17 4.3 10.4 0.00 0.00 0.00 66 1017.6
20260906071810 85 11 4.3 10.4 0.00 0.00 0.00 67 1017.6
20260906071719 85 10 4.3 8.7 0.00 0.00 0.00 67 1017.7
20260906071620 85 12 4.3 9.6 0.00 0.00 0.00 67 1017.6
20260906071504 85 16 5.2 9.6 0.00 0.00 0.00 67 1017.6
20260906071404 85 22 5.2 9.6 0.00 0.00 0.00 67 1017.6
20260906071304 85 15 5.2 9.6 0.00 0.00 0.00 67 1017.6
20260906071204 85 9 5.2 9.6 0.00 0.00 0.00 67 1017.6
20260906071104 85 359 5.2 10.4 0.00 0.00 0.00 67 1017.5
20260906071004 85 349 6.1 10.4 0.00 0.00 0.00 68 1017.5
20260906070904 85 340 6.1 10.4 0.00 0.00 0.00 68 1017.6
20260906070804 85 339 6.1 10.4 0.00 0.00 0.00 68 1017.6
20260906070704 85 329 6.1 10.4 0.00 0.00 0.00 68 1017.6
20260906070604 84 327 6.1 10.4 0.00 0.00 0.00 69 1017.6
20260906070504 84 322 6.1 12.2 0.00 0.00 0.00 69 1017.6
20260906070421 84 320 6.1 12.2 0.00 0.00 0.00 69 1017.5
20260906070320 84 322 5.2 12.2 0.00 0.00 0.00 69 1017.4
20260906070213 84 323 5.2 12.2 0.00 0.00 0.00 69 1017.4
20260906070126 84 327 5.2 12.2 0.00 0.00 0.00 69 1017.5
20260906070005 84 331 5.2 12.2 0.00 0.00 0.00 69 1017.5
20260906065904 84 333 5.2 12.2 0.00 0.00 0.00 69 1017.5
20260906065804 84 336 5.2 12.2 0.00 0.00 0.00 69 1017.4
20260906065704 84 346 4.3 12.2 0.00 0.00 0.00 69 1017.4
20260906065604 84 348 4.3 12.2 0.00 0.00 0.00 68 1017.5
20260906065504 84 357 4.3 11.3 0.00 0.00 0.00 69 1017.4
20260906065404 84 4 4.3 11.3 0.00 0.00 0.00 69 1017.4
20260906065305 84 10 4.3 11.3 0.00 0.00 0.00 69 1017.4
20260906065204 84 7 4.3 11.3 0.00 0.00 0.00 69 1017.4
20260906065104 84 5 4.3 11.3 0.00 0.00 0.00 69 1017.4
20260906065004 84 11 4.3 11.3 0.00 0.00 0.00 69 1017.4
20260906064914 84 15 4.3 11.3 0.00 0.00 0.00 69 1017.4
20260906064813 84 15 4.3 11.3 0.00 0.00 0.00 69 1017.3
20260906064715 84 15 4.3 9.6 0.00 0.00 0.00 69 1017.3
20260906064621 84 13 4.3 9.6 0.00 0.00 0.00 70 1017.4
20260906064504 84 10 4.3 9.6 0.00 0.00 0.00 70 1017.4
20260906064404 84 4 4.3 9.6 0.00 0.00 0.00 70 1017.4
20260906064304 84 358 4.3 9.6 0.00 0.00 0.00 70 1017.3
20260906064204 84 1 4.3 9.6 0.00 0.00 0.00 70 1017.4
20260906064104 84 357 4.3 9.6 0.00 0.00 0.00 70 1017.4
20260906064004 84 350 5.2 9.6 0.00 0.00 0.00 71 1017.4
20260906063904 84 347 5.2 9.6 0.00 0.00 0.00 71 1017.4
20260906063804 84 342 5.2 9.6 0.00 0.00 0.00 71 1017.4
20260906063704 84 340 5.2 9.6 0.00 0.00 0.00 71 1017.3
20260906063604 83 335 6.1 10.4 0.00 0.00 0.00 71 1017.3
20260906063504 83 336 6.1 10.4 0.00 0.00 0.00 71 1017.3
20260906063419 83 334 6.1 10.4 0.00 0.00 0.00 72 1017.3
20260906063315 83 328 7.0 10.4 0.00 0.00 0.00 72 1017.3
20260906063207 83 322 7.0 11.3 0.00 0.00 0.00 72 1017.2
20260906063125 83 321 7.0 11.3 0.00 0.00 0.00 72 1017.2
20260906063004 83 320 7.0 11.3 0.00 0.00 0.00 72 1017.2
20260906062905 83 320 7.8 11.3 0.00 0.00 0.00 73 1017.2
20260906062805 83 318 7.8 11.3 0.00 0.00 0.00 73 1017.2
20260906062704 83 315 7.8 12.2 0.00 0.00 0.00 73 1017.1
20260906062604 83 316 7.8 12.2 0.00 0.00 0.00 73 1017.1
20260906062504 83 314 7.8 12.2 0.00 0.00 0.00 72 1017.1
20260906062404 83 313 7.8 12.2 0.00 0.00 0.00 73 1017.1
20260906062306 83 314 7.8 12.2 0.00 0.00 0.00 73 1017.1
20260906062204 83 314 7.8 12.2 0.00 0.00 0.00 72 1017.1
20260906062104 83 315 7.8 12.2 0.00 0.00 0.00 73 1017.1
20260906062004 83 316 7.0 12.2 0.00 0.00 0.00 73 1017.2
20260906061918 83 314 7.0 12.2 0.00 0.00 0.00 73 1017.2
20260906061819 83 315 7.0 12.2 0.00 0.00 0.00 73 1017.1
20260906061718 83 316 7.0 12.2 0.00 0.00 0.00 73 1017.0
20260906061625 83 316 7.0 12.2 0.00 0.00 0.00 73 1017.0
20260906061504 83 316 7.0 12.2 0.00 0.00 0.00 73 1017.1
20260906061408 83 317 7.0 12.2 0.00 0.00 0.00 73 1017.1
20260906061304 82 319 7.0 12.2 0.00 0.00 0.00 73 1017.1
20260906061204 83 322 7.0 12.2 0.00 0.00 0.00 73 1017.0
20260906061103 82 322 7.0 12.2 0.00 0.00 0.00 73 1017.0
20260906061004 82 319 7.0 12.2 0.00 0.00 0.00 73 1017.0
20260906060903 82 322 7.0 12.2 0.00 0.00 0.00 73 1017.0
20260906060804 82 322 7.0 12.2 0.00 0.00 0.00 73 1017.0
20260906060704 82 322 7.0 12.2 0.00 0.00 0.00 73 1017.0
20260906060604 82 322 7.0 12.2 0.00 0.00 0.00 73 1017.0
20260906060504 82 321 7.0 12.2 0.00 0.00 0.00 74 1017.0
20260906060413 82 320 7.0 12.2 0.00 0.00 0.00 74 1017.0
20260906060319 82 319 6.1 12.2 0.00 0.00 0.00 73 1017.0
20260906060206 82 317 6.1 12.2 0.00 0.00 0.00 74 1016.9
20260906060125 82 316 6.1 12.2 0.00 0.00 0.00 74 1016.9
20260906060004 82 321 6.1 12.2 0.00 0.00 0.00 73 1016.9
20260906055903 82 320 6.1 12.2 0.00 0.00 0.00 73 1016.9
20260906055804 82 318 6.1 12.2 0.00 0.00 0.00 74 1016.9
20260906055703 82 318 5.2 11.3 0.00 0.00 0.00 74 1016.9
20260906055604 82 321 5.2 11.3 0.00 0.00 0.00 74 1016.9
20260906055504 82 323 5.2 11.3 0.00 0.00 0.00 75 1016.9
20260906055403 82 326 5.2 11.3 0.00 0.00 0.00 75 1016.9
20260906055306 82 325 5.2 11.3 0.00 0.00 0.00 75 1016.9
20260906055204 82 326 6.1 11.3 0.00 0.00 0.00 75 1016.9
20260906055104 82 326 6.1 11.3 0.00 0.00 0.00 75 1017.0
20260906055004 82 326 6.1 11.3 0.00 0.00 0.00 75 1017.0
20260906054914 82 329 6.1 11.3 0.00 0.00 0.00 75 1017.0
20260906054812 82 328 6.1 11.3 0.00 0.00 0.00 75 1016.9
20260906054720 82 329 6.1 11.3 0.00 0.00 0.00 76 1016.9
20260906054626 82 328 6.1 11.3 0.00 0.00 0.00 76 1016.9
20260906054504 82 329 6.1 11.3 0.00 0.00 0.00 76 1016.9
20260906054404 82 329 6.1 11.3 0.00 0.00 0.00 76 1016.9
20260906054304 82 331 6.1 11.3 0.00 0.00 0.00 76 1016.9
20260906054204 82 332 6.1 11.3 0.00 0.00 0.00 76 1016.9
20260906054104 82 330 6.1 11.3 0.00 0.00 0.00 76 1016.9
20260906054004 81 327 6.1 11.3 0.00 0.00 0.00 76 1016.9
20260906053905 82 325 6.1 11.3 0.00 0.00 0.00 76 1016.9
20260906053805 82 328 6.1 11.3 0.00 0.00 0.00 76 1016.9
20260906053705 81 325 6.1 11.3 0.00 0.00 0.00 76 1016.9
20260906053604 81 322 6.1 11.3 0.00 0.00 0.00 76 1016.9
20260906053505 81 317 6.1 10.4 0.00 0.00 0.00 76 1016.9
20260906053411 81 315 6.1 10.4 0.00 0.00 0.00 76 1016.9
20260906053307 81 314 6.1 10.4 0.00 0.00 0.00 77 1017.0
20260906053207 81 312 6.1 10.4 0.00 0.00 0.00 77 1017.0
20260906053121 81 314 6.1 10.4 0.00 0.00 0.00 77 1016.9
20260906053005 81 315 6.1 11.3 0.00 0.00 0.00 77 1016.9
20260906052904 81 314 6.1 11.3 0.00 0.00 0.00 77 1016.9
20260906052804 81 311 6.1 11.3 0.00 0.00 0.00 77 1016.8
20260906052704 81 312 6.1 11.3 0.00 0.00 0.00 77 1016.8
20260906052604 81 313 6.1 11.3 0.00 0.00 0.00 77 1016.9
20260906052504 81 315 6.1 11.3 0.00 0.00 0.00 77 1016.9
20260906052404 81 315 6.1 11.3 0.00 0.00 0.00 77 1016.9
20260906052306 81 313 6.1 11.3 0.00 0.00 0.00 77 1016.9
20260906052204 81 313 6.1 11.3 0.00 0.00 0.00 77 1016.9
20260906052104 81 310 6.1 11.3 0.00 0.00 0.00 77 1016.9
20260906052005 81 310 6.1 10.4 0.00 0.00 0.00 77 1016.9
20260906051917 81 309 6.1 10.4 0.00 0.00 0.00 77 1016.9
20260906051810 81 312 6.1 10.4 0.00 0.00 0.00 77 1016.9
20260906051707 81 312 6.1 9.6 0.00 0.00 0.00 77 1016.9
20260906051626 81 312 6.1 9.6 0.00 0.00 0.00 77 1016.9
20260906051505 81 308 6.1 11.3 0.00 0.00 0.00 77 1016.9
20260906051405 80 305 6.1 12.2 0.00 0.00 0.00 77 1016.9
20260906051304 80 307 6.1 12.2 0.00 0.00 0.00 77 1016.9
20260906051204 80 308 5.2 12.2 0.00 0.00 0.00 77 1016.9
20260906051104 80 308 5.2 12.2 0.00 0.00 0.00 77 1016.9
20260906051005 80 308 5.2 12.2 0.00 0.00 0.00 77 1016.9
20260906050904 80 309 5.2 12.2 0.00 0.00 0.00 77 1016.9
20260906050804 80 308 5.2 12.2 0.00 0.00 0.00 77 1016.8
20260906050704 80 307 5.2 12.2 0.00 0.00 0.00 77 1016.8
20260906050605 80 308 6.1 12.2 0.00 0.00 0.00 78 1016.8
20260906050504 80 310 6.1 12.2 0.00 0.00 0.00 78 1016.9
20260906050423 80 312 6.1 11.3 0.00 0.00 0.00 77 1016.9
20260906050320 80 314 6.1 10.4 0.00 0.00 0.00 77 1016.8
20260906050206 80 313 6.1 10.4 0.00 0.00 0.00 78 1016.8
20260906050125 80 313 7.0 10.4 0.00 0.00 0.00 77 1016.8
20260906050004 80 311 7.0 12.2 0.00 0.00 0.00 78 1016.8
20260906045904 80 308 7.0 12.2 0.00 0.00 0.00 78 1016.8
20260906045804 80 308 7.0 12.2 0.00 0.00 0.00 78 1016.8
20260906045704 80 309 7.0 12.2 0.00 0.00 0.00 78 1016.8
20260906045604 80 309 6.1 12.2 0.00 0.00 0.00 78 1016.8
20260906045504 80 309 6.1 12.2 0.00 0.00 0.00 78 1016.7
20260906045404 80 309 6.1 12.2 0.00 0.00 0.00 78 1016.8
20260906045306 80 309 6.1 12.2 0.00 0.00 0.00 78 1016.8
20260906045204 80 309 6.1 12.2 0.00 0.00 0.00 78 1016.8
20260906045104 80 310 6.1 12.2 0.00 0.00 0.00 78 1016.8
20260906045004 80 311 6.1 12.2 0.00 0.00 0.00 78 1016.8
20260906044913 80 311 6.1 12.2 0.00 0.00 0.00 78 1016.8
20260906044817 80 310 6.1 12.2 0.00 0.00 0.00 78 1016.8
20260906044712 80 310 6.1 12.2 0.00 0.00 0.00 78 1016.8
20260906044622 80 312 6.1 12.2 0.00 0.00 0.00 78 1016.8
20260906044504 80 310 6.1 12.2 0.00 0.00 0.00 78 1016.8
20260906044404 80 310 6.1 12.2 0.00 0.00 0.00 78 1016.7
20260906044304 80 308 6.1 11.3 0.00 0.00 0.00 78 1016.7
20260906044204 80 308 6.1 11.3 0.00 0.00 0.00 78 1016.7
20260906044104 80 308 6.1 11.3 0.00 0.00 0.00 78 1016.7
20260906044004 80 306 6.1 11.3 0.00 0.00 0.00 78 1016.7
20260906043904 80 307 6.1 11.3 0.00 0.00 0.00 78 1016.7
20260906043804 80 307 6.1 11.3 0.00 0.00 0.00 78 1016.7
20260906043704 80 305 6.1 11.3 0.00 0.00 0.00 78 1016.8
20260906043604 80 304 6.1 11.3 0.00 0.00 0.00 78 1016.8
20260906043504 80 304 6.1 11.3 0.00 0.00 0.00 78 1016.8
20260906043407 80 304 6.1 11.3 0.00 0.00 0.00 78 1016.7
20260906043313 80 305 6.1 11.3 0.00 0.00 0.00 78 1016.7
20260906043218 80 304 6.1 11.3 0.00 0.00 0.00 78 1016.8
20260906043120 80 303 6.1 11.3 0.00 0.00 0.00 78 1016.8
20260906043004 80 302 6.1 11.3 0.00 0.00 0.00 78 1016.8
20260906042904 80 302 5.2 11.3 0.00 0.00 0.00 78 1016.7
20260906042804 80 302 5.2 11.3 0.00 0.00 0.00 78 1016.7
20260906042704 80 302 5.2 11.3 0.00 0.00 0.00 78 1016.7
20260906042604 80 302 5.2 11.3 0.00 0.00 0.00 78 1016.7
20260906042504 80 302 5.2 11.3 0.00 0.00 0.00 78 1016.7
20260906042404 80 302 5.2 11.3 0.00 0.00 0.00 78 1016.7
20260906042306 80 303 5.2 11.3 0.00 0.00 0.00 78 1016.7
20260906042204 80 302 5.2 11.3 0.00 0.00 0.00 78 1016.7
20260906042104 80 304 5.2 11.3 0.00 0.00 0.00 78 1016.7
20260906042004 80 304 5.2 11.3 0.00 0.00 0.00 78 1016.7
20260906041915 80 303 5.2 11.3 0.00 0.00 0.00 78 1016.7
20260906041814 80 308 5.2 11.3 0.00 0.00 0.00 78 1016.6
20260906041718 80 307 5.2 11.3 0.00 0.00 0.00 78 1016.6
20260906041626 80 309 5.2 11.3 0.00 0.00 0.00 78 1016.6
20260906041504 80 311 5.2 11.3 0.00 0.00 0.00 78 1016.6
20260906041404 80 313 5.2 11.3 0.00 0.00 0.00 77 1016.6
20260906041304 80 312 5.2 11.3 0.00 0.00 0.00 77 1016.7
20260906041204 80 313 5.2 11.3 0.00 0.00 0.00 77 1016.7
20260906041104 80 311 5.2 11.3 0.00 0.00 0.00 77 1016.6
20260906041004 80 314 5.2 11.3 0.00 0.00 0.00 77 1016.6
20260906040904 80 314 5.2 11.3 0.00 0.00 0.00 77 1016.6
20260906040804 80 310 5.2 11.3 0.00 0.00 0.00 77 1016.6
20260906040704 80 311 5.2 11.3 0.00 0.00 0.00 77 1016.6
20260906040604 80 310 5.2 10.4 0.00 0.00 0.00 77 1016.6
20260906040504 80 309 5.2 10.4 0.00 0.00 0.00 77 1016.6
20260906040405 80 308 5.2 10.4 0.00 0.00 0.00 77 1016.6
20260906040309 80 307 5.2 9.6 0.00 0.00 0.00 77 1016.6
20260906040215 80 306 6.1 11.3 0.00 0.00 0.00 77 1016.6
20260906040124 80 306 6.1 11.3 0.00 0.00 0.00 77 1016.6
20260906040005 80 305 6.1 11.3 0.00 0.00 0.00 77 1016.6
20260906035905 80 306 6.1 11.3 0.00 0.00 0.00 77 1016.6
20260906035804 80 305 6.1 11.3 0.00 0.00 0.00 77 1016.6
20260906035704 80 305 6.1 11.3 0.00 0.00 0.00 77 1016.5
20260906035604 80 304 6.1 11.3 0.00 0.00 0.00 77 1016.5
20260906035504 80 303 6.1 11.3 0.00 0.00 0.00 77 1016.5
20260906035404 80 303 6.1 11.3 0.00 0.00 0.00 77 1016.5
20260906035306 80 302 6.1 11.3 0.00 0.00 0.00 77 1016.6
20260906035204 80 304 6.1 10.4 0.00 0.00 0.00 77 1016.5
20260906035104 80 306 6.1 10.4 0.00 0.00 0.00 77 1016.5
20260906035004 80 305 6.1 11.3 0.00 0.00 0.00 77 1016.5
20260906034912 80 306 6.1 11.3 0.00 0.00 0.00 77 1016.5
20260906034815 80 305 6.1 11.3 0.00 0.00 0.00 77 1016.4
20260906034712 80 305 6.1 11.3 0.00 0.00 0.00 77 1016.4
20260906034622 81 307 6.1 11.3 0.00 0.00 0.00 77 1016.4
20260906034505 80 309 6.1 11.3 0.00 0.00 0.00 77 1016.4
20260906034404 81 311 6.1 11.3 0.00 0.00 0.00 77 1016.4
20260906034304 81 312 6.1 11.3 0.00 0.00 0.00 77 1016.4
20260906034204 80 310 6.1 11.3 0.00 0.00 0.00 77 1016.4
20260906034105 81 309 6.1 11.3 0.00 0.00 0.00 77 1016.4
20260906034004 81 308 6.1 11.3 0.00 0.00 0.00 77 1016.5
20260906033904 81 308 6.1 11.3 0.00 0.00 0.00 77 1016.4
20260906033804 81 307 6.1 11.3 0.00 0.00 0.00 77 1016.4
20260906033704 81 309 6.1 11.3 0.00 0.00 0.00 77 1016.3
20260906033604 81 308 6.1 11.3 0.00 0.00 0.00 77 1016.3
20260906033504 81 308 6.1 11.3 0.00 0.00 0.00 77 1016.4
20260906033410 81 306 6.1 11.3 0.00 0.00 0.00 77 1016.4
20260906033308 81 306 6.1 11.3 0.00 0.00 0.00 77 1016.4
20260906033213 81 307 6.1 11.3 0.00 0.00 0.00 77 1016.4
20260906033124 81 306 6.1 11.3 0.00 0.00 0.00 77 1016.4
20260906033004 81 307 6.1 11.3 0.00 0.00 0.00 77 1016.3
20260906032904 81 308 6.1 11.3 0.00 0.00 0.00 77 1016.3
20260906032804 81 311 6.1 11.3 0.00 0.00 0.00 77 1016.3
20260906032704 81 312 5.2 11.3 0.00 0.00 0.00 77 1016.3
20260906032604 81 314 5.2 10.4 0.00 0.00 0.00 77 1016.3
20260906032504 81 314 5.2 10.4 0.00 0.00 0.00 77 1016.3
20260906032404 81 317 5.2 10.4 0.00 0.00 0.00 77 1016.3
20260906032306 81 319 5.2 10.4 0.00 0.00 0.00 77 1016.3
20260906032204 81 321 5.2 10.4 0.00 0.00 0.00 77 1016.3
20260906032104 81 322 5.2 10.4 0.00 0.00 0.00 77 1016.3
20260906032004 81 321 5.2 10.4 0.00 0.00 0.00 77 1016.3
20260906031914 81 319 5.2 10.4 0.00 0.00 0.00 77 1016.3
20260906031816 81 317 5.2 10.4 0.00 0.00 0.00 77 1016.3
20260906031721 81 313 5.2 10.4 0.00 0.00 0.00 77 1016.3
20260906031626 81 311 5.2 10.4 0.00 0.00 0.00 77 1016.3
20260906031503 81 311 5.2 10.4 0.00 0.00 0.00 77 1016.3
20260906031403 81 312 5.2 10.4 0.00 0.00 0.00 77 1016.3
20260906031303 81 310 5.2 10.4 0.00 0.00 0.00 77 1016.3
20260906031203 81 309 5.2 10.4 0.00 0.00 0.00 77 1016.3
20260906031105 81 310 5.2 10.4 0.00 0.00 0.00 77 1016.3
20260906031004 81 312 5.2 10.4 0.00 0.00 0.00 77 1016.3
20260906030904 81 312 5.2 10.4 0.00 0.00 0.00 77 1016.3
20260906030805 81 312 5.2 10.4 0.00 0.00 0.00 77 1016.3
20260906030704 81 314 5.2 10.4 0.00 0.00 0.00 77 1016.3
20260906030604 81 315 6.1 10.4 0.00 0.00 0.00 76 1016.3
20260906030505 81 316 6.1 10.4 0.00 0.00 0.00 76 1016.3
20260906030421 81 314 6.1 10.4 0.00 0.00 0.00 76 1016.3
20260906030314 81 313 6.1 10.4 0.00 0.00 0.00 76 1016.3
20260906030211 81 314 6.1 10.4 0.00 0.00 0.00 76 1016.3
20260906030126 81 315 6.1 10.4 0.00 0.00 0.00 76 1016.3
20260906030006 81 316 5.2 10.4 0.00 0.00 0.00 76 1016.3
20260906025904 81 316 5.2 10.4 0.00 0.00 0.00 76 1016.3
20260906025805 81 318 5.2 10.4 0.00 0.00 0.00 76 1016.3
20260906025704 81 318 5.2 10.4 0.00 0.00 0.00 76 1016.3
20260906025604 81 316 5.2 10.4 0.00 0.00 0.00 76 1016.4
20260906025504 81 315 4.3 10.4 0.00 0.00 0.00 76 1016.4
20260906025405 81 317 4.3 10.4 0.00 0.00 0.00 77 1016.4
20260906025306 81 317 4.3 9.6 0.00 0.00 0.00 77 1016.4
20260906025205 81 317 4.3 9.6 0.00 0.00 0.00 77 1016.4
20260906025104 81 319 4.3 8.7 0.00 0.00 0.00 77 1016.4
20260906025004 81 321 4.3 8.7 0.00 0.00 0.00 77 1016.4
20260906024908 81 323 4.3 8.7 0.00 0.00 0.00 76 1016.4
20260906024813 81 322 4.3 8.7 0.00 0.00 0.00 76 1016.4
20260906024717 81 326 4.3 8.7 0.00 0.00 0.00 76 1016.4
20260906024622 81 328 4.3 8.7 0.00 0.00 0.00 76 1016.5
20260906024504 81 327 4.3 8.7 0.00 0.00 0.00 76 1016.5
20260906024405 81 323 4.3 9.6 0.00 0.00 0.00 76 1016.5
20260906024305 81 326 4.3 9.6 0.00 0.00 0.00 76 1016.4
20260906024205 81 326 4.3 9.6 0.00 0.00 0.00 76 1016.4
20260906024104 81 325 4.3 9.6 0.00 0.00 0.00 76 1016.5
20260906024004 81 326 4.3 9.6 0.00 0.00 0.00 76 1016.4
20260906023904 81 328 4.3 9.6 0.00 0.00 0.00 76 1016.4
20260906023804 81 332 4.3 9.6 0.00 0.00 0.00 76 1016.5
20260906023704 81 331 4.3 9.6 0.00 0.00 0.00 76 1016.5
20260906023604 81 332 4.3 9.6 0.00 0.00 0.00 76 1016.5
20260906023504 81 331 4.3 9.6 0.00 0.00 0.00 76 1016.5
20260906023408 81 331 4.3 8.7 0.00 0.00 0.00 76 1016.5
20260906023312 81 327 4.3 8.7 0.00 0.00 0.00 76 1016.5
20260906023217 81 322 4.3 8.7 0.00 0.00 0.00 76 1016.6
20260906023122 81 320 4.3 8.7 0.00 0.00 0.00 76 1016.6
20260906023004 81 313 4.3 8.7 0.00 0.00 0.00 76 1016.6
20260906022904 81 308 4.3 8.7 0.00 0.00 0.00 76 1016.6
20260906022804 81 304 4.3 8.7 0.00 0.00 0.00 76 1016.5
20260906022704 81 300 4.3 9.6 0.00 0.00 0.00 76 1016.6
20260906022604 81 300 4.3 9.6 0.00 0.00 0.00 76 1016.6
20260906022504 81 302 4.3 9.6 0.00 0.00 0.00 76 1016.6
20260906022404 81 303 4.3 9.6 0.00 0.00 0.00 76 1016.6
20260906022307 81 304 4.3 9.6 0.00 0.00 0.00 76 1016.6
20260906022204 81 306 4.3 9.6 0.00 0.00 0.00 76 1016.6
20260906022104 81 306 4.3 9.6 0.00 0.00 0.00 76 1016.6
20260906022005 81 307 4.3 9.6 0.00 0.00 0.00 76 1016.5
20260906021921 81 309 4.3 9.6 0.00 0.00 0.00 76 1016.5
20260906021818 81 308 4.3 9.6 0.00 0.00 0.00 76 1016.6
20260906021710 81 311 4.3 9.6 0.00 0.00 0.00 76 1016.5
20260906021627 81 309 4.3 9.6 0.00 0.00 0.00 76 1016.5
20260906021504 81 309 4.3 9.6 0.00 0.00 0.00 76 1016.6
20260906021404 81 308 4.3 10.4 0.00 0.00 0.00 76 1016.5
20260906021304 81 309 3.5 10.4 0.00 0.00 0.00 76 1016.5
20260906021204 81 310 3.5 10.4 0.00 0.00 0.00 76 1016.5
20260906021104 81 311 3.5 10.4 0.00 0.00 0.00 76 1016.5
20260906021004 81 313 3.5 10.4 0.00 0.00 0.00 76 1016.5
20260906020904 81 313 3.5 10.4 0.00 0.00 0.00 76 1016.6
20260906020804 81 312 3.5 10.4 0.00 0.00 0.00 76 1016.6
20260906020704 81 310 4.3 10.4 0.00 0.00 0.00 76 1016.5
20260906020604 81 311 4.3 10.4 0.00 0.00 0.00 76 1016.6
20260906020505 81 309 4.3 10.4 0.00 0.00 0.00 76 1016.6
20260906020407 81 308 4.3 9.6 0.00 0.00 0.00 76 1016.5
20260906020306 81 307 4.3 10.4 0.00 0.00 0.00 76 1016.5
20260906020215 81 306 4.3 10.4 0.00 0.00 0.00 76 1016.6
20260906020124 81 304 4.3 10.4 0.00 0.00 0.00 76 1016.6
20260906020004 81 301 4.3 10.4 0.00 0.00 0.00 76 1016.6
20260906015904 81 299 4.3 10.4 0.00 0.00 0.00 76 1016.5
20260906015805 81 304 4.3 10.4 0.00 0.00 0.00 76 1016.5
20260906015704 81 307 4.3 10.4 0.00 0.00 0.00 76 1016.5
20260906015604 81 309 4.3 10.4 0.00 0.00 0.00 76 1016.5
20260906015510 81 311 4.3 10.4 0.00 0.00 0.00 76 1016.5
20260906015404 81 315 4.3 10.4 0.00 0.00 0.00 76 1016.5
20260906015306 81 316 4.3 10.4 0.00 0.00 0.00 76 1016.5
20260906015204 81 313 5.2 10.4 0.00 0.00 0.00 76 1016.4
20260906015104 81 315 5.2 10.4 0.00 0.00 0.00 76 1016.6
20260906015004 81 317 5.2 10.4 0.00 0.00 0.00 76 1016.6
20260906014920 81 322 6.1 10.4 0.00 0.00 0.00 76 1016.6
20260906014817 81 324 6.1 10.4 0.00 0.00 0.00 76 1016.6
20260906014710 81 323 6.1 12.2 0.00 0.00 0.00 76 1016.5
20260906014625 81 321 7.0 12.2 0.00 0.00 0.00 76 1016.5
20260906014504 81 317 7.0 13.0 0.00 0.00 0.00 76 1016.5
20260906014405 81 313 7.0 13.0 0.00 0.00 0.00 76 1016.5
20260906014104 81 311 6.1 13.0 0.00 0.00 0.00 76 1016.5
20260906014004 81 308 6.1 13.0 0.00 0.00 0.00 76 1016.5
20260906013904 81 305 5.2 13.0 0.00 0.00 0.00 76 1016.5
20260906013804 81 303 5.2 13.0 0.00 0.00 0.00 76 1016.5
20260906013704 81 301 5.2 13.0 0.00 0.00 0.00 76 1016.5
20260906013604 81 302 4.3 13.0 0.00 0.00 0.00 76 1016.5
20260906013504 81 304 4.3 13.0 0.00 0.00 0.00 76 1016.5
20260906013412 81 306 4.3 11.3 0.00 0.00 0.00 76 1016.5
20260906013314 81 312 4.3 11.3 0.00 0.00 0.00 76 1016.5
20260906013214 81 320 4.3 11.3 0.00 0.00 0.00 76 1016.5
20260906013125 81 325 4.3 11.3 0.00 0.00 0.00 76 1016.5
20260906013004 81 331 4.3 11.3 0.00 0.00 0.00 76 1016.5
20260906012904 81 337 4.3 11.3 0.00 0.00 0.00 76 1016.5
20260906012804 81 339 5.2 11.3 0.00 0.00 0.00 76 1016.5
20260906012704 81 340 5.2 9.6 0.00 0.00 0.00 76 1016.5
20260906012604 81 335 5.2 9.6 0.00 0.00 0.00 76 1016.5
20260906012504 81 330 5.2 9.6 0.00 0.00 0.00 76 1016.6
20260906012403 81 323 5.2 9.6 0.00 0.00 0.00 76 1016.6
20260906012306 81 316 5.2 9.6 0.00 0.00 0.00 76 1016.5
20260906012204 81 310 6.1 10.4 0.00 0.00 0.00 76 1016.5
20260906012104 81 309 6.1 10.4 0.00 0.00 0.00 76 1016.6
20260906012004 81 308 6.1 10.4 0.00 0.00 0.00 76 1016.5
20260906011918 81 306 6.1 10.4 0.00 0.00 0.00 76 1016.5
20260906011818 81 303 6.1 10.4 0.00 0.00 0.00 76 1016.5
20260906011713 81 302 6.1 10.4 0.00 0.00 0.00 76 1016.5
20260906011627 81 303 6.1 11.3 0.00 0.00 0.00 76 1016.5
20260906011504 81 303 6.1 11.3 0.00 0.00 0.00 76 1016.5
20260906011404 81 303 6.1 12.2 0.00 0.00 0.00 76 1016.5
20260906011304 81 303 6.1 12.2 0.00 0.00 0.00 76 1016.5
20260906011204 81 303 6.1 12.2 0.00 0.00 0.00 76 1016.5
20260906011104 81 303 6.1 12.2 0.00 0.00 0.00 76 1016.5
20260906011005 81 305 6.1 12.2 0.00 0.00 0.00 76 1016.5
20260906010904 81 309 6.1 12.2 0.00 0.00 0.00 76 1016.5
20260906010804 81 315 6.1 12.2 0.00 0.00 0.00 76 1016.5
20260906010704 81 317 6.1 12.2 0.00 0.00 0.00 76 1016.4
20260906010604 81 319 6.1 12.2 0.00 0.00 0.00 76 1016.4
20260906010504 81 318 6.1 12.2 0.00 0.00 0.00 76 1016.5
20260906010415 81 317 6.1 11.3 0.00 0.00 0.00 76 1016.5
20260906010316 81 318 6.1 10.4 0.00 0.00 0.00 76 1016.5
20260906010209 81 318 5.2 11.3 0.00 0.00 0.00 76 1016.5
20260906010123 81 317 5.2 11.3 0.00 0.00 0.00 76 1016.5
20260906010004 81 316 5.2 11.3 0.00 0.00 0.00 76 1016.4
20260906005904 81 314 5.2 11.3 0.00 0.00 0.00 76 1016.4
20260906005805 81 311 5.2 11.3 0.00 0.00 0.00 76 1016.4
20260906005704 81 311 5.2 11.3 0.00 0.00 0.00 76 1016.4
20260906005604 81 311 5.2 11.3 0.00 0.00 0.00 76 1016.4
20260906005504 81 313 5.2 11.3 0.00 0.00 0.00 76 1016.5
20260906005404 81 314 5.2 12.2 0.00 0.00 0.00 76 1016.5
20260906005306 81 314 5.2 12.2 0.00 0.00 0.00 76 1016.5
20260906005204 81 314 5.2 12.2 0.00 0.00 0.00 76 1016.4
20260906005104 81 313 5.2 12.2 0.00 0.00 0.00 76 1016.4
20260906005004 81 312 5.2 12.2 0.00 0.00 0.00 76 1016.5
20260906004919 81 310 5.2 12.2 0.00 0.00 0.00 76 1016.5
20260906004817 81 311 5.2 12.2 0.00 0.00 0.00 76 1016.5
20260906004705 81 311 5.2 12.2 0.00 0.00 0.00 76 1016.4
20260906004625 81 313 5.2 12.2 0.00 0.00 0.00 76 1016.4
20260906004504 81 315 5.2 12.2 0.00 0.00 0.00 77 1016.4
20260906004404 81 315 5.2 11.3 0.00 0.00 0.00 77 1016.4
20260906004304 81 318 5.2 11.3 0.00 0.00 0.00 77 1016.4
20260906004204 81 321 5.2 10.4 0.00 0.00 0.00 77 1016.5
20260906004105 81 324 5.2 9.6 0.00 0.00 0.00 77 1016.5
20260906004004 81 329 5.2 9.6 0.00 0.00 0.00 77 1016.5
20260906003904 81 330 5.2 11.3 0.00 0.00 0.00 77 1016.5
20260906003804 81 329 5.2 11.3 0.00 0.00 0.00 77 1016.5
20260906003704 81 328 5.2 11.3 0.00 0.00 0.00 77 1016.5
20260906003604 81 327 4.3 11.3 0.00 0.00 0.00 77 1016.5
20260906003504 81 330 4.3 11.3 0.00 0.00 0.00 77 1016.5
20260906003413 81 331 4.3 11.3 0.00 0.00 0.00 77 1016.5
20260906003314 81 333 4.3 11.3 0.00 0.00 0.00 77 1016.5
20260906003215 81 335 4.3 11.3 0.00 0.00 0.00 77 1016.4
20260906003120 81 341 3.5 11.3 0.00 0.00 0.00 77 1016.5
20260906003005 81 345 3.5 11.3 0.00 0.00 0.00 77 1016.5
20260906002905 81 352 3.5 10.4 0.00 0.00 0.00 77 1016.5
20260906002804 81 357 3.5 10.4 0.00 0.00 0.00 77 1016.5
20260906002704 81 5 3.5 10.4 0.00 0.00 0.00 77 1016.6
20260906002604 81 11 3.5 10.4 0.00 0.00 0.00 77 1016.5
20260906002505 81 17 3.5 7.8 0.00 0.00 0.00 77 1016.5
20260906002404 81 21 3.5 7.8 0.00 0.00 0.00 77 1016.5
20260906002306 81 25 3.5 7.8 0.00 0.00 0.00 77 1016.5
20260906002204 81 21 3.5 7.8 0.00 0.00 0.00 77 1016.5
20260906002104 81 19 3.5 7.8 0.00 0.00 0.00 77 1016.5
20260906002004 81 20 3.5 7.8 0.00 0.00 0.00 77 1016.5
20260906001916 81 19 3.5 7.8 0.00 0.00 0.00 77 1016.4
20260906001818 81 19 3.5 7.8 0.00 0.00 0.00 77 1016.4
20260906001714 81 21 3.5 7.8 0.00 0.00 0.00 77 1016.5
20260906001623 81 19 3.5 7.8 0.00 0.00 0.00 77 1016.6
20260906001504 81 19 3.5 7.8 0.00 0.00 0.00 77 1016.6
20260906001404 81 18 3.5 7.8 0.00 0.00 0.00 77 1016.6
20260906001304 81 14 3.5 7.8 0.00 0.00 0.00 77 1016.6
20260906001204 81 28 3.5 7.8 0.00 0.00 0.00 78 1016.6
20260906001104 81 32 3.5 7.8 0.00 0.00 0.00 78 1016.6
20260906001005 81 28 3.5 7.8 0.00 0.00 0.00 78 1016.6
20260906000905 81 30 4.3 9.6 0.00 0.00 0.00 78 1016.6
20260906000804 81 30 7.0 9.6 0.00 0.00 0.00 78 1016.6
20260906000704 81 30 7.0 9.6 0.00 0.00 0.00 78 1016.6
20260906000605 81 30 7.0 9.6 0.00 0.00 0.00 78 1016.6
20260906000505 81 30 7.8 9.6 0.00 0.00 0.00 78 1016.6
20260906000420 81 30 7.8 9.6 0.00 0.00 0.00 78 1016.6
20260906000318 81 30 7.0 14.8 0.00 0.00 0.00 78 1016.7
20260906000211 81 30 7.0 14.8 0.00 0.00 0.00 78 1016.7
20260906000124 82 30 7.0 14.8 0.00 0.00 0.00 61 1016.6
20260906000004 82 30 7.0 14.8 0.00 0.00 0.00 61 1016.7
20260905235904 82 30 7.0 14.8 0.00 0.00 0.00 61 1016.6
20260905235804 82 30 7.0 14.8 0.00 0.00 0.00 61 1016.7
20260905235704 82 29 7.0 14.8 0.00 0.00 0.00 61 1016.7
20260905235604 82 29 7.8 14.8 0.00 0.00 0.00 61 1016.7
20260905235504 82 28 7.8 14.8 0.00 0.00 0.00 61 1016.8
20260905235404 82 28 7.8 14.8 0.00 0.00 0.00 61 1016.7
20260905235306 82 28 7.8 14.8 0.00 0.00 0.00 61 1016.7
20260905235204 82 27 8.7 14.8 0.00 0.00 0.00 61 1016.8
20260905235104 82 27 8.7 14.8 0.00 0.00 0.00 61 1016.8
20260905235004 82 26 9.6 11.3 0.00 0.00 0.00 61 1016.8
20260905234917 82 25 9.6 15.6 0.00 0.00 0.00 61 1016.9
20260905234817 82 26 10.4 15.6 0.00 0.00 0.00 61 1016.9
20260905234712 82 27 10.4 15.6 0.00 0.00 0.00 61 1016.9
20260905234625 82 27 10.4 15.6 0.00 0.00 0.00 61 1016.9
20260905234504 82 28 11.3 15.6 0.00 0.00 0.00 61 1017.0
20260905234404 82 28 11.3 15.6 0.00 0.00 0.00 61 1016.9
20260905234304 82 31 11.3 15.6 0.00 0.00 0.00 61 1016.9
20260905234204 82 31 11.3 15.6 0.00 0.00 0.00 61 1016.8
20260905234104 82 32 11.3 15.6 0.00 0.00 0.00 61 1016.8
20260905234004 82 32 11.3 15.6 0.00 0.00 0.00 61 1016.8
20260905233904 82 31 11.3 13.9 0.00 0.00 0.00 61 1016.8
20260905233804 82 31 11.3 15.6 0.00 0.00 0.00 61 1016.8
20260905233704 82 31 11.3 15.6 0.00 0.00 0.00 61 1016.8
20260905233604 82 31 11.3 15.6 0.00 0.00 0.00 60 1016.9
20260905233504 82 32 11.3 15.6 0.00 0.00 0.00 60 1016.9
20260905233414 82 33 11.3 15.6 0.00 0.00 0.00 60 1016.9
20260905233314 82 29 11.3 15.6 0.00 0.00 0.00 60 1016.9
20260905233215 82 28 11.3 15.6 0.00 0.00 0.00 60 1017.0
20260905233125 82 27 10.4 15.6 0.00 0.00 0.00 60 1017.0
20260905233004 82 25 9.6 15.6 0.00 0.00 0.00 60 1017.0
20260905232904 82 27 7.0 15.6 0.00 0.00 0.00 60 1016.9
20260905232804 82 24 3.5 15.6 0.00 0.00 0.00 61 1016.9
20260905232704 82 23 2.6 13.0 0.00 0.00 0.00 60 1016.9
20260905232604 82 22 2.6 13.0 0.00 0.00 0.00 60 1017.0
20260905232504 82 22 2.6 13.0 0.00 0.00 0.00 60 1017.0
20260905232404 82 22 2.6 13.0 0.00 0.00 0.00 60 1017.0
20260905232306 82 22 2.6 13.0 0.00 0.00 0.00 60 1017.0
20260905232204 82 22 2.6 5.2 0.00 0.00 0.00 60 1017.0
20260905232104 82 22 2.6 5.2 0.00 0.00 0.00 78 1017.0
20260905232004 82 22 2.6 5.2 0.00 0.00 0.00 78 1017.0
20260905231904 82 22 2.6 5.2 0.00 0.00 0.00 78 1017.1
20260905231804 82 22 2.6 5.2 0.00 0.00 0.00 78 1017.1
20260905231704 82 22 2.6 5.2 0.00 0.00 0.00 78 1017.0
20260905231604 82 22 2.6 5.2 0.00 0.00 0.00 78 1017.0
20260905230904 82 20 3.5 5.2 0.00 0.00 0.00 78 1017.1
20260905230804 82 24 3.5 6.1 0.00 0.00 0.00 77 1017.1
20260905230704 82 26 3.5 6.1 0.00 0.00 0.00 77 1017.1
20260905230604 82 27 3.5 8.7 0.00 0.00 0.00 77 1017.1
20260905230504 82 27 3.5 8.7 0.00 0.00 0.00 77 1017.1
20260905230413 82 27 4.3 8.7 0.00 0.00 0.00 77 1017.1
20260905230313 82 25 4.3 8.7 0.00 0.00 0.00 77 1017.1
20260905230206 82 25 4.3 8.7 0.00 0.00 0.00 77 1017.2
20260905230132 82 27 4.3 8.7 0.00 0.00 0.00 77 1017.2
20260905230005 82 28 3.5 8.7 0.00 0.00 0.00 77 1017.2
20260905225904 82 29 3.5 8.7 0.00 0.00 0.00 77 1017.2
20260905225804 82 28 3.5 8.7 0.00 0.00 0.00 77 1017.2
20260905225704 82 29 3.5 8.7 0.00 0.00 0.00 77 1017.2
20260905225604 82 28 3.5 7.8 0.00 0.00 0.00 77 1017.2
20260905225504 82 28 3.5 7.8 0.00 0.00 0.00 77 1017.1
20260905225405 82 30 3.5 7.8 0.00 0.00 0.00 77 1017.1
20260905225306 82 32 2.6 7.8 0.00 0.00 0.00 77 1017.1
20260905225205 82 31 2.6 7.8 0.00 0.00 0.00 77 1017.1
20260905225105 82 26 2.6 7.0 0.00 0.00 0.00 77 1017.1
20260905225006 82 21 2.6 5.2 0.00 0.00 0.00 77 1017.1
20260905224904 82 17 2.6 5.2 0.00 0.00 0.00 77 1017.1
20260905224807 82 15 2.6 5.2 0.00 0.00 0.00 77 1017.1
20260905224714 82 13 2.6 5.2 0.00 0.00 0.00 77 1017.0
20260905224621 82 13 2.6 5.2 0.00 0.00 0.00 77 1017.0
20260905224504 82 12 2.6 5.2 0.00 0.00 0.00 77 1017.1
20260905224404 82 6 2.6 4.3 0.00 0.00 0.00 77 1017.1
20260905224304 82 4 2.6 4.3 0.00 0.00 0.00 77 1017.1
20260905224204 82 4 2.6 4.3 0.00 0.00 0.00 77 1017.1
20260905224104 82 7 2.6 4.3 0.00 0.00 0.00 77 1017.1
20260905224004 82 6 2.6 5.2 0.00 0.00 0.00 77 1017.2
20260905223904 82 7 2.6 5.2 0.00 0.00 0.00 77 1017.1
20260905223804 82 5 2.6 5.2 0.00 0.00 0.00 76 1017.1
20260905223704 82 4 2.6 5.2 0.00 0.00 0.00 76 1017.2
20260905223604 82 3 2.6 5.2 0.00 0.00 0.00 76 1017.2
20260905223504 82 3 2.6 6.1 0.00 0.00 0.00 76 1017.2
20260905223411 82 4 2.6 6.1 0.00 0.00 0.00 76 1017.2
20260905223314 82 6 3.5 6.1 0.00 0.00 0.00 76 1017.2
20260905223215 82 6 3.5 6.1 0.00 0.00 0.00 76 1017.3
20260905223125 82 7 3.5 6.1 0.00 0.00 0.00 76 1017.3
20260905223005 82 12 3.5 6.1 0.00 0.00 0.00 76 1017.3
20260905222904 82 10 3.5 6.1 0.00 0.00 0.00 76 1017.2
20260905222804 82 8 3.5 7.0 0.00 0.00 0.00 76 1017.2
20260905222704 82 7 3.5 7.0 0.00 0.00 0.00 76 1017.3
20260905222604 82 6 3.5 7.0 0.00 0.00 0.00 76 1017.3
20260905222504 82 4 3.5 7.0 0.00 0.00 0.00 76 1017.3
20260905222404 82 3 3.5 7.0 0.00 0.00 0.00 76 1017.3
20260905222306 82 2 3.5 7.0 0.00 0.00 0.00 76 1017.3
20260905222204 82 360 3.5 7.0 0.00 0.00 0.00 76 1017.3
20260905222104 82 358 3.5 7.0 0.00 0.00 0.00 76 1017.3
20260905222004 82 355 3.5 7.0 0.00 0.00 0.00 76 1017.3
20260905221904 82 355 2.6 7.0 0.00 0.00 0.00 76 1017.3
20260905221810 82 355 2.6 7.0 0.00 0.00 0.00 76 1017.3
20260905221718 82 352 2.6 7.0 0.00 0.00 0.00 76 1017.2
20260905221617 82 353 2.6 7.0 0.00 0.00 0.00 76 1017.3
20260905221504 82 353 2.6 7.0 0.00 0.00 0.00 76 1017.3
20260905221404 82 352 2.6 7.0 0.00 0.00 0.00 75 1017.2
20260905221305 82 347 2.6 7.0 0.00 0.00 0.00 75 1017.3
20260905221204 82 345 2.6 7.0 0.00 0.00 0.00 75 1017.3
20260905221104 82 340 2.6 6.1 0.00 0.00 0.00 75 1017.2
20260905221004 82 335 2.6 6.1 0.00 0.00 0.00 75 1017.2
20260905220904 82 330 2.6 4.3 0.00 0.00 0.00 75 1017.2
20260905220804 82 326 2.6 6.1 0.00 0.00 0.00 75 1017.2
20260905220705 82 322 2.6 6.1 0.00 0.00 0.00 75 1017.2
20260905220604 82 316 2.6 6.1 0.00 0.00 0.00 75 1017.2
20260905220508 82 314 2.6 6.1 0.00 0.00 0.00 75 1017.2
20260905220414 82 311 2.6 6.1 0.00 0.00 0.00 75 1017.2
20260905220316 82 309 2.6 6.1 0.00 0.00 0.00 75 1017.2
20260905220230 82 308 2.6 6.1 0.00 0.00 0.00 75 1017.2
20260905220103 82 309 2.6 6.1 0.00 0.00 0.00 76 1017.2
20260905215904 82 308 2.6 6.1 0.00 0.00 0.00 76 1017.2
20260905215804 82 306 2.6 6.1 0.00 0.00 0.00 76 1017.2
20260905215704 82 306 2.6 6.1 0.00 0.00 0.00 76 1017.2
20260905215604 82 307 1.7 6.1 0.00 0.00 0.00 76 1017.3
20260905215505 82 310 1.7 6.1 0.00 0.00 0.00 75 1017.2
20260905215404 82 312 1.7 6.1 0.00 0.00 0.00 75 1017.2
20260905215306 82 315 1.7 6.1 0.00 0.00 0.00 75 1017.2
20260905215204 82 314 1.7 6.1 0.00 0.00 0.00 75 1017.2
20260905215104 82 313 1.7 6.1 0.00 0.00 0.00 75 1017.2
20260905215004 82 313 1.7 6.1 0.00 0.00 0.00 75 1017.1
20260905214918 82 314 1.7 6.1 0.00 0.00 0.00 75 1017.1
20260905214817 82 317 1.7 4.3 0.00 0.00 0.00 75 1017.2
20260905214716 82 317 1.7 4.3 0.00 0.00 0.00 74 1017.2
20260905214624 82 317 1.7 3.5 0.00 0.00 0.00 74 1017.3
20260905214504 82 311 1.7 3.5 0.00 0.00 0.00 74 1017.2
20260905214404 82 309 2.6 3.5 0.00 0.00 0.00 74 1017.2
20260905214304 82 307 2.6 3.5 0.00 0.00 0.00 74 1017.2
20260905214205 82 310 2.6 3.5 0.00 0.00 0.00 74 1017.3
20260905214104 82 314 2.6 3.5 0.00 0.00 0.00 74 1017.3
20260905214004 82 319 2.6 5.2 0.00 0.00 0.00 74 1017.3
20260905213904 82 320 2.6 5.2 0.00 0.00 0.00 74 1017.3
20260905213804 82 320 2.6 5.2 0.00 0.00 0.00 74 1017.3
20260905213704 82 322 2.6 5.2 0.00 0.00 0.00 74 1017.3
20260905213604 82 324 2.6 5.2 0.00 0.00 0.00 74 1017.3
20260905213504 82 327 2.6 5.2 0.00 0.00 0.00 73 1017.3
20260905213404 83 329 2.6 5.2 0.00 0.00 0.00 73 1017.3
20260905213308 83 330 2.6 5.2 0.00 0.00 0.00 73 1017.3
20260905213217 83 330 2.6 5.2 0.00 0.00 0.00 73 1017.4
20260905213120 83 332 2.6 5.2 0.00 0.00 0.00 73 1017.4
20260905213004 83 335 3.5 5.2 0.00 0.00 0.00 73 1017.3
20260905212904 83 339 3.5 5.2 0.00 0.00 0.00 73 1017.3
20260905212804 83 343 3.5 5.2 0.00 0.00 0.00 73 1017.3
20260905212704 83 348 3.5 6.1 0.00 0.00 0.00 73 1017.3
20260905212604 83 352 3.5 6.1 0.00 0.00 0.00 72 1017.3
20260905212504 83 354 3.5 6.1 0.00 0.00 0.00 72 1017.3
20260905212404 83 357 3.5 6.1 0.00 0.00 0.00 72 1017.4
20260905212306 83 358 3.5 6.1 0.00 0.00 0.00 72 1017.4
20260905212204 83 6 3.5 6.1 0.00 0.00 0.00 72 1017.2
20260905212104 83 9 3.5 6.1 0.00 0.00 0.00 72 1017.2
20260905212004 83 9 3.5 6.1 0.00 0.00 0.00 72 1017.2
20260905211906 83 10 3.5 6.1 0.00 0.00 0.00 72 1017.3
20260905211811 83 14 3.5 6.1 0.00 0.00 0.00 71 1017.3
20260905211719 83 18 3.5 6.1 0.00 0.00 0.00 71 1017.3
20260905211626 83 15 3.5 6.1 0.00 0.00 0.00 71 1017.3
20260905211504 83 15 3.5 7.0 0.00 0.00 0.00 71 1017.3
20260905211404 83 13 3.5 7.0 0.00 0.00 0.00 71 1017.3
20260905211304 83 16 3.5 7.0 0.00 0.00 0.00 71 1017.3
20260905211204 83 11 3.5 7.0 0.00 0.00 0.00 71 1017.3
20260905211104 83 4 3.5 7.0 0.00 0.00 0.00 71 1017.3
20260905211009 83 3 3.5 7.0 0.00 0.00 0.00 71 1017.3
20260905210904 83 2 3.5 7.0 0.00 0.00 0.00 71 1017.4
20260905210804 83 359 3.5 7.0 0.00 0.00 0.00 71 1017.4
20260905210704 83 350 3.5 7.0 0.00 0.00 0.00 71 1017.3
20260905210604 83 352 3.5 7.0 0.00 0.00 0.00 71 1017.3
20260905210504 83 353 3.5 7.0 0.00 0.00 0.00 71 1017.3
20260905210404 83 356 3.5 7.0 0.00 0.00 0.00 71 1017.3
20260905210309 83 355 3.5 7.0 0.00 0.00 0.00 71 1017.3
20260905210220 83 352 3.5 7.0 0.00 0.00 0.00 71 1017.3
20260905210125 83 355 3.5 7.0 0.00 0.00 0.00 71 1017.3
20260905210005 83 357 3.5 7.0 0.00 0.00 0.00 71 1017.3
20260905205904 83 355 3.5 7.0 0.00 0.00 0.00 71 1017.3
20260905205804 83 356 3.5 7.0 0.00 0.00 0.00 71 1017.3
20260905205703 83 1 3.5 7.0 0.00 0.00 0.00 71 1017.3
20260905205604 83 360 3.5 7.0 0.00 0.00 0.00 71 1017.2
20260905205504 83 2 2.6 7.0 0.00 0.00 0.00 71 1017.2
20260905205404 83 1 2.6 7.0 0.00 0.00 0.00 71 1017.2
20260905205306 83 360 2.6 7.0 0.00 0.00 0.00 71 1017.3
20260905205204 83 358 2.6 7.0 0.00 0.00 0.00 71 1017.3
20260905205104 83 355 2.6 7.0 0.00 0.00 0.00 72 1017.3
20260905205004 83 352 2.6 7.0 0.00 0.00 0.00 72 1017.3
20260905204915 83 351 2.6 7.0 0.00 0.00 0.00 72 1017.3
20260905204816 83 352 2.6 5.2 0.00 0.00 0.00 72 1017.3
20260905204710 83 352 2.6 5.2 0.00 0.00 0.00 72 1017.3
20260905204627 83 353 2.6 5.2 0.00 0.00 0.00 72 1017.3
20260905204505 83 351 2.6 5.2 0.00 0.00 0.00 72 1017.3
20260905204405 83 349 2.6 5.2 0.00 0.00 0.00 72 1017.3
20260905204305 83 350 2.6 5.2 0.00 0.00 0.00 72 1017.3
20260905204204 83 350 3.5 5.2 0.00 0.00 0.00 72 1017.3
20260905204105 83 354 3.5 5.2 0.00 0.00 0.00 72 1017.3
20260905204005 83 353 3.5 5.2 0.00 0.00 0.00 72 1017.3
20260905203905 83 355 3.5 7.0 0.00 0.00 0.00 72 1017.3
20260905203805 83 356 3.5 7.0 0.00 0.00 0.00 72 1017.3
20260905203705 83 353 3.5 7.0 0.00 0.00 0.00 72 1017.3
20260905203605 83 348 3.5 7.0 0.00 0.00 0.00 72 1017.3
20260905203505 83 345 3.5 7.0 0.00 0.00 0.00 72 1017.4
20260905203419 83 345 3.5 7.0 0.00 0.00 0.00 72 1017.4
20260905203308 83 345 3.5 7.0 0.00 0.00 0.00 72 1017.4
20260905203212 83 347 3.5 7.0 0.00 0.00 0.00 72 1017.4
20260905203125 83 352 3.5 8.7 0.00 0.00 0.00 72 1017.3
20260905203004 83 355 3.5 8.7 0.00 0.00 0.00 72 1017.3
20260905202904 83 353 3.5 8.7 0.00 0.00 0.00 72 1017.3
20260905202805 83 352 3.5 8.7 0.00 0.00 0.00 72 1017.4
20260905202705 83 352 3.5 8.7 0.00 0.00 0.00 72 1017.4
20260905202605 83 357 3.5 8.7 0.00 0.00 0.00 72 1017.3
20260905202505 83 359 3.5 8.7 0.00 0.00 0.00 72 1017.3
20260905202405 83 4 3.5 8.7 0.00 0.00 0.00 72 1017.3
20260905202306 83 7 3.5 8.7 0.00 0.00 0.00 72 1017.3
20260905202204 83 8 3.5 8.7 0.00 0.00 0.00 72 1017.4
20260905202104 83 4 3.5 7.0 0.00 0.00 0.00 73 1017.4
20260905202005 83 8 3.5 7.0 0.00 0.00 0.00 73 1017.4
20260905201819 83 13 3.5 7.0 0.00 0.00 0.00 73 1017.4
20260905201706 83 17 3.5 7.8 0.00 0.00 0.00 73 1017.6
20260905201626 83 19 3.5 8.7 0.00 0.00 0.00 73 1017.6
20260905201505 83 22 3.5 8.7 0.00 0.00 0.00 73 1017.5
20260905201404 83 19 3.5 8.7 0.00 0.00 0.00 73 1017.5
20260905201304 83 18 3.5 8.7 0.00 0.00 0.00 72 1017.4
20260905201204 83 20 4.3 8.7 0.00 0.00 0.00 72 1017.5
20260905201105 83 22 4.3 8.7 0.00 0.00 0.00 73 1017.5
20260905201004 83 20 4.3 8.7 0.00 0.00 0.00 73 1017.4
20260905200904 83 19 4.3 8.7 0.00 0.00 0.00 73 1017.4
20260905200804 83 18 4.3 8.7 0.00 0.00 0.00 73 1017.4
20260905200704 83 20 4.3 9.6 0.00 0.00 0.00 73 1017.4
20260905200604 83 18 4.3 9.6 0.00 0.00 0.00 73 1017.4
20260905200505 83 19 4.3 9.6 0.00 0.00 0.00 73 1017.4
20260905200419 83 21 4.3 9.6 0.00 0.00 0.00 73 1017.4
20260905200316 83 23 5.2 9.6 0.00 0.00 0.00 73 1017.4
20260905200207 83 23 5.2 9.6 0.00 0.00 0.00 73 1017.3
20260905200130 83 24 5.2 9.6 0.00 0.00 0.00 73 1017.3
20260905200005 83 25 5.2 10.4 0.00 0.00 0.00 73 1017.3
20260905195904 83 27 5.2 10.4 0.00 0.00 0.00 73 1017.3
20260905195804 83 27 5.2 10.4 0.00 0.00 0.00 73 1017.3
20260905195704 83 27 5.2 10.4 0.00 0.00 0.00 73 1017.4
20260905195604 83 28 4.3 10.4 0.00 0.00 0.00 72 1017.4
20260905195504 83 27 4.3 10.4 0.00 0.00 0.00 72 1017.4
20260905195404 83 28 4.3 10.4 0.00 0.00 0.00 72 1017.3
20260905195306 83 27 4.3 10.4 0.00 0.00 0.00 72 1017.3
20260905195204 83 25 4.3 10.4 0.00 0.00 0.00 72 1017.4
20260905195104 83 23 4.3 10.4 0.00 0.00 0.00 72 1017.4
20260905195004 83 22 4.3 8.7 0.00 0.00 0.00 72 1017.4
20260905194920 83 22 4.3 8.7 0.00 0.00 0.00 72 1017.4
20260905194807 83 20 4.3 8.7 0.00 0.00 0.00 72 1017.4
20260905194711 83 17 4.3 8.7 0.00 0.00 0.00 72 1017.4
20260905194633 83 14 4.3 8.7 0.00 0.00 0.00 72 1017.4
20260905194504 83 15 4.3 8.7 0.00 0.00 0.00 72 1017.4
20260905194404 83 11 4.3 9.6 0.00 0.00 0.00 72 1017.3
20260905194304 83 9 4.3 9.6 0.00 0.00 0.00 72 1017.3
20260905194206 83 10 4.3 9.6 0.00 0.00 0.00 72 1017.3
20260905194104 83 9 4.3 9.6 0.00 0.00 0.00 72 1017.3
20260905194004 83 8 4.3 9.6 0.00 0.00 0.00 72 1017.3
20260905193904 83 7 4.3 9.6 0.00 0.00 0.00 72 1017.3
20260905193804 83 6 4.3 9.6 0.00 0.00 0.00 72 1017.3
20260905193704 83 5 3.5 9.6 0.00 0.00 0.00 72 1017.3
20260905193604 83 7 3.5 9.6 0.00 0.00 0.00 72 1017.4
20260905193504 83 7 3.5 9.6 0.00 0.00 0.00 72 1017.4
20260905193416 83 6 3.5 7.8 0.00 0.00 0.00 72 1017.3
20260905193318 83 4 3.5 7.8 0.00 0.00 0.00 72 1017.3
20260905193218 83 3 3.5 7.8 0.00 0.00 0.00 72 1017.2
20260905193120 83 3 3.5 7.8 0.00 0.00 0.00 73 1017.3
20260905193005 83 2 3.5 7.8 0.00 0.00 0.00 72 1017.3
20260905192904 83 2 3.5 7.8 0.00 0.00 0.00 73 1017.3
20260905192804 83 2 4.3 7.8 0.00 0.00 0.00 73 1017.3
20260905192704 83 3 4.3 7.8 0.00 0.00 0.00 73 1017.3
20260905192604 83 1 4.3 7.8 0.00 0.00 0.00 73 1017.3
20260905192504 83 358 4.3 7.8 0.00 0.00 0.00 73 1017.3
20260905192404 83 359 4.3 7.8 0.00 0.00 0.00 73 1017.2
20260905192306 83 4 4.3 7.8 0.00 0.00 0.00 73 1017.3
20260905192204 83 6 4.3 7.8 0.00 0.00 0.00 73 1017.3
20260905192104 83 6 4.3 7.8 0.00 0.00 0.00 73 1017.2
20260905192004 83 7 4.3 7.8 0.00 0.00 0.00 72 1017.3
20260905191919 83 5 4.3 7.8 0.00 0.00 0.00 72 1017.3
20260905191807 83 7 4.3 7.0 0.00 0.00 0.00 72 1017.1
20260905191711 83 7 4.3 7.8 0.00 0.00 0.00 72 1017.1
20260905191619 83 4 4.3 8.7 0.00 0.00 0.00 72 1017.2
20260905191504 83 5 4.3 8.7 0.00 0.00 0.00 72 1017.2
20260905191405 83 7 3.5 8.7 0.00 0.00 0.00 72 1017.2
20260905191305 83 6 3.5 8.7 0.00 0.00 0.00 72 1017.2
20260905191204 83 4 3.5 8.7 0.00 0.00 0.00 72 1017.2
20260905191104 83 5 4.3 8.7 0.00 0.00 0.00 72 1017.2
20260905191005 83 7 4.3 8.7 0.00 0.00 0.00 72 1017.1
20260905190904 83 12 4.3 8.7 0.00 0.00 0.00 72 1017.1
20260905190804 84 12 4.3 8.7 0.00 0.00 0.00 72 1017.1
20260905190704 84 12 4.3 8.7 0.00 0.00 0.00 73 1017.1
20260905190604 84 11 4.3 8.7 0.00 0.00 0.00 72 1017.0
20260905190505 84 12 4.3 8.7 0.00 0.00 0.00 72 1017.0
20260905190421 84 9 4.3 8.7 0.00 0.00 0.00 72 1017.0
20260905190320 84 12 4.3 8.7 0.00 0.00 0.00 73 1017.0
20260905190208 83 13 4.3 8.7 0.00 0.00 0.00 73 1016.9
20260905190126 83 15 4.3 8.7 0.00 0.00 0.00 73 1016.9
20260905190005 83 13 5.2 8.7 0.00 0.00 0.00 72 1017.0
20260905185904 83 9 5.2 8.7 0.00 0.00 0.00 73 1017.0
20260905185804 83 8 5.2 8.7 0.00 0.00 0.00 73 1017.1
20260905185704 83 9 5.2 8.7 0.00 0.00 0.00 73 1017.0
20260905185604 83 10 5.2 8.7 0.00 0.00 0.00 73 1017.0
20260905185504 83 11 5.2 8.7 0.00 0.00 0.00 73 1017.1
20260905185404 83 15 5.2 9.6 0.00 0.00 0.00 73 1017.1
20260905185306 83 15 4.3 9.6 0.00 0.00 0.00 73 1017.1
20260905185204 83 19 4.3 9.6 0.00 0.00 0.00 73 1017.0
20260905185104 84 17 4.3 9.6 0.00 0.00 0.00 73 1017.0
20260905185004 84 21 4.3 9.6 0.00 0.00 0.00 73 1017.0
20260905184910 84 23 4.3 9.6 0.00 0.00 0.00 73 1017.0
20260905184814 84 25 4.3 9.6 0.00 0.00 0.00 73 1017.0
20260905184718 84 25 4.3 9.6 0.00 0.00 0.00 72 1016.9
20260905184630 84 27 4.3 9.6 0.00 0.00 0.00 72 1016.9
20260905184504 84 25 3.5 9.6 0.00 0.00 0.00 72 1017.0
20260905184404 84 23 3.5 9.6 0.00 0.00 0.00 72 1016.9
20260905184304 84 22 3.5 9.6 0.00 0.00 0.00 73 1016.9
20260905184204 84 20 3.5 9.6 0.00 0.00 0.00 73 1016.9
20260905184104 84 21 3.5 9.6 0.00 0.00 0.00 72 1016.9
20260905184004 84 19 3.5 9.6 0.00 0.00 0.00 72 1016.9
20260905183904 84 18 3.5 9.6 0.00 0.00 0.00 72 1016.8
20260905183804 84 15 3.5 7.8 0.00 0.00 0.00 73 1016.8
20260905183704 84 15 3.5 7.8 0.00 0.00 0.00 73 1016.9
20260905183604 84 14 3.5 8.7 0.00 0.00 0.00 73 1016.9
20260905183504 84 14 3.5 8.7 0.00 0.00 0.00 73 1016.8
20260905183411 84 10 3.5 8.7 0.00 0.00 0.00 73 1016.8
20260905183315 84 8 3.5 8.7 0.00 0.00 0.00 73 1016.8
20260905183221 84 9 3.5 8.7 0.00 0.00 0.00 73 1016.9
20260905183124 84 7 3.5 8.7 0.00 0.00 0.00 73 1016.9
20260905183004 84 4 3.5 8.7 0.00 0.00 0.00 73 1016.8
20260905182904 84 4 3.5 8.7 0.00 0.00 0.00 73 1016.8
20260905182807 84 4 3.5 8.7 0.00 0.00 0.00 73 1016.8
20260905182704 84 6 3.5 8.7 0.00 0.00 0.00 72 1016.7
20260905182604 84 6 3.5 7.8 0.00 0.00 0.00 73 1016.8
20260905182504 84 5 3.5 7.8 0.00 0.00 0.00 72 1016.8
20260905182404 84 6 3.5 7.8 0.00 0.00 0.00 72 1016.7
20260905182305 84 5 3.5 7.0 0.00 0.00 0.00 73 1016.7
20260905182204 84 4 3.5 7.0 0.00 0.00 0.00 73 1016.7
20260905182104 84 6 3.5 7.0 0.00 0.00 0.00 73 1016.7
20260905182004 84 5 3.5 7.0 0.00 0.00 0.00 73 1016.7
20260905181913 84 6 3.5 7.0 0.00 0.00 0.00 73 1016.7
20260905181814 84 9 3.5 7.0 0.00 0.00 0.00 73 1016.7
20260905181708 84 8 3.5 7.0 0.00 0.00 0.00 73 1016.7
20260905181618 84 10 3.5 7.8 0.00 0.00 0.00 73 1016.7
20260905181503 84 12 3.5 7.8 0.00 0.00 0.00 73 1016.7
20260905181404 84 14 3.5 7.8 0.00 0.00 0.00 73 1016.7
20260905181305 84 13 3.5 7.8 0.00 0.00 0.00 72 1016.7
20260905181205 84 11 3.5 7.8 0.00 0.00 0.00 72 1016.7
20260905181104 84 10 3.5 7.8 0.00 0.00 0.00 72 1016.6
20260905181005 84 13 3.5 7.8 0.00 0.00 0.00 72 1016.6
20260905180906 84 12 3.5 7.8 0.00 0.00 0.00 72 1016.6
20260905180805 84 10 3.5 7.8 0.00 0.00 0.00 72 1016.6
20260905180704 84 8 3.5 7.8 0.00 0.00 0.00 72 1016.6
20260905180605 84 360 3.5 7.8 0.00 0.00 0.00 72 1016.7
20260905180505 84 1 3.5 7.8 0.00 0.00 0.00 72 1016.7
20260905180414 84 1 3.5 7.8 0.00 0.00 0.00 72 1016.7
20260905180319 84 2 3.5 7.8 0.00 0.00 0.00 72 1016.6
20260905180224 84 4 3.5 7.8 0.00 0.00 0.00 72 1016.6
20260905180120 84 4 3.5 7.8 0.00 0.00 0.00 72 1016.5
20260905180005 84 5 3.5 7.8 0.00 0.00 0.00 72 1016.5
20260905175905 84 3 3.5 7.8 0.00 0.00 0.00 72 1016.5
20260905175804 84 1 3.5 7.8 0.00 0.00 0.00 72 1016.6
20260905175704 84 1 3.5 7.8 0.00 0.00 0.00 72 1016.6
20260905175604 84 7 3.5 7.8 0.00 0.00 0.00 71 1016.5
20260905175505 84 6 3.5 7.8 0.00 0.00 0.00 71 1016.5
20260905175404 84 6 3.5 7.8 0.00 0.00 0.00 71 1016.5
20260905175306 84 3 3.5 7.8 0.00 0.00 0.00 71 1016.5
20260905175204 84 1 3.5 7.8 0.00 0.00 0.00 71 1016.5
20260905175105 84 359 3.5 7.8 0.00 0.00 0.00 71 1016.5
20260905175005 84 359 3.5 7.8 0.00 0.00 0.00 71 1016.5
20260905174914 84 360 3.5 7.8 0.00 0.00 0.00 71 1016.5
20260905174814 84 358 3.5 7.8 0.00 0.00 0.00 71 1016.5
20260905174706 84 355 3.5 7.8 0.00 0.00 0.00 70 1016.5
20260905174618 84 352 3.5 7.8 0.00 0.00 0.00 70 1016.5
20260905174504 84 346 3.5 7.8 0.00 0.00 0.00 70 1016.5
20260905174404 84 344 3.5 7.0 0.00 0.00 0.00 70 1016.5
20260905174304 84 347 3.5 7.0 0.00 0.00 0.00 70 1016.5
20260905174204 84 349 3.5 7.8 0.00 0.00 0.00 70 1016.5
20260905174104 84 351 3.5 7.8 0.00 0.00 0.00 70 1016.5
20260905174005 84 347 3.5 7.8 0.00 0.00 0.00 70 1016.5
20260905173904 84 348 3.5 7.8 0.00 0.00 0.00 70 1016.5
20260905173804 84 353 3.5 7.8 0.00 0.00 0.00 70 1016.5
20260905173705 84 355 3.5 7.8 0.00 0.00 0.00 69 1016.8
20260905173604 84 356 3.5 7.8 0.00 0.00 0.00 69 1016.8
20260905173504 84 1 4.3 7.8 0.00 0.00 0.00 69 1016.6
20260905173412 84 360 4.3 7.8 0.00 0.00 0.00 69 1016.6
20260905173315 84 360 4.3 7.8 0.00 0.00 0.00 69 1016.5
20260905173207 84 360 4.3 7.8 0.00 0.00 0.00 69 1016.5
20260905173131 84 4 4.3 9.6 0.00 0.00 0.00 69 1016.5
20260905173004 84 6 4.3 9.6 0.00 0.00 0.00 68 1016.5
20260905172904 84 6 4.3 9.6 0.00 0.00 0.00 68 1016.5
20260905172804 84 5 4.3 9.6 0.00 0.00 0.00 68 1016.4
20260905172704 84 3 4.3 9.6 0.00 0.00 0.00 68 1016.3
20260905172605 84 3 4.3 9.6 0.00 0.00 0.00 68 1016.3
20260905172504 84 359 4.3 9.6 0.00 0.00 0.00 68 1016.4
20260905172405 84 359 4.3 9.6 0.00 0.00 0.00 68 1016.3
20260905172305 84 359 4.3 9.6 0.00 0.00 0.00 68 1016.3
20260905172204 85 360 4.3 9.6 0.00 0.00 0.00 68 1016.3
20260905172105 85 356 4.3 9.6 0.00 0.00 0.00 67 1016.3
20260905172004 84 358 4.3 9.6 0.00 0.00 0.00 67 1016.3
20260905171922 85 360 4.3 9.6 0.00 0.00 0.00 67 1016.3
20260905171807 85 1 4.3 9.6 0.00 0.00 0.00 67 1016.3
20260905171714 85 1 4.3 9.6 0.00 0.00 0.00 67 1016.3
20260905171628 85 359 4.3 9.6 0.00 0.00 0.00 67 1016.3
20260905171504 85 3 4.3 9.6 0.00 0.00 0.00 66 1016.3
20260905171404 85 2 4.3 9.6 0.00 0.00 0.00 66 1016.4
20260905171304 85 359 4.3 9.6 0.00 0.00 0.00 66 1016.4
20260905171204 85 357 4.3 9.6 0.00 0.00 0.00 66 1016.4
20260905171104 85 1 4.3 9.6 0.00 0.00 0.00 66 1016.4
20260905171004 85 360 4.3 9.6 0.00 0.00 0.00 66 1016.3
20260905170904 85 1 4.3 9.6 0.00 0.00 0.00 66 1016.3
20260905170804 85 358 4.3 9.6 0.00 0.00 0.00 66 1016.3
20260905170704 85 358 4.3 9.6 0.00 0.00 0.00 66 1016.2
20260905170604 85 360 4.3 8.7 0.00 0.00 0.00 66 1016.2
20260905170504 85 358 4.3 8.7 0.00 0.00 0.00 66 1016.2
20260905170419 85 358 4.3 8.7 0.00 0.00 0.00 66 1016.2
20260905170318 85 1 4.3 8.7 0.00 0.00 0.00 66 1016.2
20260905170220 85 6 4.3 8.7 0.00 0.00 0.00 65 1016.2
20260905170117 85 4 4.3 8.7 0.00 0.00 0.00 65 1016.2
20260905170004 85 5 4.3 8.7 0.00 0.00 0.00 65 1016.2
20260905165904 85 1 4.3 8.7 0.00 0.00 0.00 65 1016.2
20260905165804 85 1 4.3 8.7 0.00 0.00 0.00 65 1016.2
20260905165704 85 3 4.3 7.8 0.00 0.00 0.00 65 1016.3
20260905165604 85 2 4.3 7.8 0.00 0.00 0.00 65 1016.2
20260905165505 85 1 4.3 7.8 0.00 0.00 0.00 65 1016.2
20260905165404 85 1 4.3 7.8 0.00 0.00 0.00 65 1016.2
20260905165306 85 3 4.3 8.7 0.00 0.00 0.00 65 1016.2
20260905165204 85 4 4.3 8.7 0.00 0.00 0.00 65 1016.2
20260905165104 85 5 5.2 8.7 0.00 0.00 0.00 65 1016.2
20260905165004 86 3 5.2 8.7 0.00 0.00 0.00 65 1016.2
20260905164921 86 3 5.2 8.7 0.00 0.00 0.00 65 1016.2
20260905164806 86 5 5.2 8.7 0.00 0.00 0.00 64 1016.2
20260905164710 86 8 5.2 8.7 0.00 0.00 0.00 64 1016.2
20260905164625 86 14 5.2 8.7 0.00 0.00 0.00 64 1016.1
20260905164504 86 22 5.2 8.7 0.00 0.00 0.00 63 1016.1
20260905164404 86 20 5.2 8.7 0.00 0.00 0.00 63 1016.2
20260905164304 86 18 5.2 8.7 0.00 0.00 0.00 63 1016.2
20260905164204 86 14 5.2 8.7 0.00 0.00 0.00 63 1016.2
20260905164104 86 12 4.3 8.7 0.00 0.00 0.00 63 1016.2
20260905164004 86 12 4.3 8.7 0.00 0.00 0.00 63 1016.2
20260905163904 86 11 4.3 8.7 0.00 0.00 0.00 63 1016.1
20260905163804 86 8 4.3 8.7 0.00 0.00 0.00 63 1016.3
20260905163704 86 7 4.3 8.7 0.00 0.00 0.00 63 1016.3
20260905163604 86 5 4.3 9.6 0.00 0.00 0.00 63 1016.2
20260905163504 86 1 4.3 9.6 0.00 0.00 0.00 62 1016.2
20260905163424 86 2 4.3 9.6 0.00 0.00 0.00 62 1016.2
20260905163320 86 7 4.3 9.6 0.00 0.00 0.00 61 1016.2
20260905163212 86 10 4.3 9.6 0.00 0.00 0.00 62 1016.2
20260905163132 86 12 4.3 9.6 0.00 0.00 0.00 61 1016.2
20260905163004 86 9 4.3 9.6 0.00 0.00 0.00 61 1016.2
20260905162904 86 11 4.3 9.6 0.00 0.00 0.00 62 1016.2
20260905162804 86 15 4.3 9.6 0.00 0.00 0.00 62 1016.3
20260905162704 86 15 4.3 9.6 0.00 0.00 0.00 62 1016.3
20260905162609 86 14 4.3 9.6 0.00 0.00 0.00 62 1016.3
20260905162504 86 13 4.3 9.6 0.00 0.00 0.00 62 1016.2
20260905162404 86 13 4.3 9.6 0.00 0.00 0.00 62 1016.2
20260905162306 86 9 4.3 9.6 0.00 0.00 0.00 61 1016.2
20260905162204 86 9 4.3 9.6 0.00 0.00 0.00 61 1016.2
20260905162104 86 6 4.3 9.6 0.00 0.00 0.00 60 1016.3
20260905162004 86 6 5.2 9.6 0.00 0.00 0.00 61 1016.2
20260905161911 86 6 5.2 9.6 0.00 0.00 0.00 62 1016.2
20260905161816 86 6 5.2 9.6 0.00 0.00 0.00 61 1016.2
20260905161716 86 8 5.2 8.7 0.00 0.00 0.00 62 1016.2
20260905161620 86 12 5.2 8.7 0.00 0.00 0.00 62 1016.2
20260905161504 86 17 5.2 8.7 0.00 0.00 0.00 62 1016.2
20260905161404 86 21 5.2 8.7 0.00 0.00 0.00 62 1016.2
20260905161304 86 24 5.2 8.7 0.00 0.00 0.00 62 1016.2
20260905161204 86 24 5.2 9.6 0.00 0.00 0.00 62 1016.3
20260905161104 86 28 5.2 9.6 0.00 0.00 0.00 63 1016.3
20260905161004 86 31 5.2 9.6 0.00 0.00 0.00 64 1016.3
20260905160904 86 33 5.2 9.6 0.00 0.00 0.00 67 1016.3
20260905160804 86 33 5.2 9.6 0.00 0.00 0.00 68 1016.3
20260905160704 86 32 5.2 9.6 0.00 0.00 0.00 65 1016.3
20260905160604 86 30 5.2 10.4 0.00 0.00 0.00 66 1016.3
20260905160504 86 29 4.3 10.4 0.00 0.00 0.00 70 1016.3
20260905160413 86 27 4.3 10.4 0.00 0.00 0.00 70 1016.3
20260905160309 86 27 4.3 10.4 0.00 0.00 0.00 69 1016.3
20260905160218 86 26 4.3 10.4 0.00 0.00 0.00 69 1016.4
20260905160121 86 25 4.3 10.4 0.00 0.00 0.00 68 1016.4
20260905160004 86 26 4.3 10.4 0.00 0.00 0.00 70 1016.3
20260905155904 86 25 4.3 10.4 0.00 0.00 0.00 70 1016.3
20260905155804 86 25 4.3 10.4 0.00 0.00 0.00 69 1016.3
20260905155704 86 22 5.2 10.4 0.00 0.00 0.00 69 1016.2
20260905155604 86 18 5.2 10.4 0.00 0.00 0.00 70 1016.2
20260905155504 86 17 5.2 10.4 0.00 0.00 0.00 69 1016.2
20260905155403 86 20 5.2 10.4 0.00 0.00 0.00 70 1016.2
20260905155306 86 20 5.2 8.7 0.00 0.00 0.00 70 1016.2
20260905155204 86 21 6.1 8.7 0.00 0.00 0.00 70 1016.2
20260905155104 86 17 6.1 8.7 0.00 0.00 0.00 71 1016.2
20260905155005 86 15 6.1 8.7 0.00 0.00 0.00 70 1016.2
20260905154911 86 16 6.1 8.7 0.00 0.00 0.00 70 1016.2
20260905154816 86 18 6.1 8.7 0.00 0.00 0.00 70 1016.2
20260905154707 86 19 6.1 9.6 0.00 0.00 0.00 70 1016.3
20260905154615 86 20 6.1 10.4 0.00 0.00 0.00 70 1016.3
20260905154504 86 20 6.1 10.4 0.00 0.00 0.00 70 1016.3
20260905154206 86 17 6.1 10.4 0.00 0.00 0.00 70 1016.3
20260905154104 86 19 6.1 10.4 0.00 0.00 0.00 70 1016.3
20260905154005 86 20 6.1 10.4 0.00 0.00 0.00 70 1016.3
20260905153905 86 19 6.1 10.4 0.00 0.00 0.00 70 1016.3
20260905153804 86 20 5.2 10.4 0.00 0.00 0.00 69 1016.3
20260905153704 86 20 5.2 10.4 0.00 0.00 0.00 69 1016.3
20260905153604 86 22 5.2 10.4 0.00 0.00 0.00 69 1016.2
20260905153505 86 25 5.2 10.4 0.00 0.00 0.00 69 1016.2
20260905153407 86 27 5.2 10.4 0.00 0.00 0.00 69 1016.2
20260905153313 86 27 5.2 10.4 0.00 0.00 0.00 68 1016.2
20260905153221 86 28 5.2 10.4 0.00 0.00 0.00 68 1016.2
20260905153120 86 27 5.2 10.4 0.00 0.00 0.00 68 1016.3
20260905153005 86 28 5.2 10.4 0.00 0.00 0.00 68 1016.3
20260905152904 87 29 5.2 10.4 0.00 0.00 0.00 68 1016.2
20260905152804 87 29 5.2 10.4 0.00 0.00 0.00 68 1016.2
20260905152704 87 30 5.2 10.4 0.00 0.00 0.00 68 1016.2
20260905152604 87 27 5.2 10.4 0.00 0.00 0.00 68 1016.2
20260905152505 87 25 5.2 10.4 0.00 0.00 0.00 68 1016.2
20260905152405 87 21 5.2 10.4 0.00 0.00 0.00 68 1016.2
20260905152306 87 20 5.2 10.4 0.00 0.00 0.00 67 1016.2
20260905152204 87 18 5.2 8.7 0.00 0.00 0.00 67 1016.2
20260905152104 87 17 5.2 8.7 0.00 0.00 0.00 67 1016.2
20260905152005 87 15 5.2 8.7 0.00 0.00 0.00 67 1016.2
20260905151905 87 15 5.2 8.7 0.00 0.00 0.00 67 1016.3
20260905151811 87 14 5.2 8.7 0.00 0.00 0.00 67 1016.2
20260905151720 87 12 5.2 8.7 0.00 0.00 0.00 67 1016.2
20260905151621 87 12 5.2 8.7 0.00 0.00 0.00 67 1016.2
20260905151504 87 11 5.2 8.7 0.00 0.00 0.00 66 1016.2
20260905151404 87 14 5.2 8.7 0.00 0.00 0.00 66 1016.3
20260905151304 87 15 5.2 8.7 0.00 0.00 0.00 67 1016.2
20260905151204 87 18 5.2 8.7 0.00 0.00 0.00 67 1016.2
20260905151104 87 21 6.1 10.4 0.00 0.00 0.00 66 1016.2
20260905151005 87 20 6.1 10.4 0.00 0.00 0.00 66 1016.2
20260905150905 87 22 6.1 11.3 0.00 0.00 0.00 66 1016.2
20260905150805 87 22 6.1 13.9 0.00 0.00 0.00 66 1016.2
20260905150704 87 23 6.1 13.9 0.00 0.00 0.00 66 1016.2
20260905150605 87 27 6.1 13.9 0.00 0.00 0.00 66 1016.2
20260905150505 87 30 6.1 13.9 0.00 0.00 0.00 66 1016.2
20260905150410 87 31 6.1 13.9 0.00 0.00 0.00 66 1016.2
20260905150315 87 31 6.1 13.9 0.00 0.00 0.00 66 1016.2
20260905150215 87 30 6.1 13.9 0.00 0.00 0.00 66 1016.2
20260905150119 87 29 6.1 13.9 0.00 0.00 0.00 66 1016.2
20260905150004 87 30 6.1 13.9 0.00 0.00 0.00 66 1016.2
20260905145904 87 33 6.1 13.9 0.00 0.00 0.00 66 1016.2
20260905145804 87 32 6.1 10.4 0.00 0.00 0.00 67 1016.1
20260905145704 87 30 7.0 10.4 0.00 0.00 0.00 68 1016.2
20260905145604 87 29 7.0 11.3 0.00 0.00 0.00 68 1016.2
20260905145504 87 31 7.0 13.0 0.00 0.00 0.00 68 1016.2
20260905145404 87 30 7.0 13.0 0.00 0.00 0.00 68 1016.2
20260905145306 87 33 7.0 13.0 0.00 0.00 0.00 68 1016.2
20260905145204 87 34 7.0 13.0 0.00 0.00 0.00 68 1016.2
20260905145104 86 38 7.0 13.0 0.00 0.00 0.00 68 1016.2
20260905145004 86 38 7.8 13.0 0.00 0.00 0.00 68 1016.2
20260905144910 86 35 7.8 13.0 0.00 0.00 0.00 68 1016.2
20260905144814 86 33 7.8 13.0 0.00 0.00 0.00 69 1016.3
20260905144720 86 35 7.8 13.0 0.00 0.00 0.00 68 1016.2
20260905144620 87 36 7.8 13.0 0.00 0.00 0.00 69 1016.2
20260905144504 87 35 7.8 13.0 0.00 0.00 0.00 69 1016.1
20260905144404 86 38 7.8 13.0 0.00 0.00 0.00 69 1016.1
20260905144304 86 39 7.8 15.6 0.00 0.00 0.00 69 1016.2
20260905144204 86 40 7.8 15.6 0.00 0.00 0.00 68 1016.1
20260905144104 86 37 7.8 15.6 0.00 0.00 0.00 68 1016.1
20260905144004 86 39 7.8 15.6 0.00 0.00 0.00 69 1016.2
20260905143904 86 41 7.8 15.6 0.00 0.00 0.00 69 1016.1
20260905143804 86 44 8.7 15.6 0.00 0.00 0.00 69 1016.1
20260905143705 86 45 8.7 15.6 0.00 0.00 0.00 70 1016.2
20260905143606 86 42 8.7 15.6 0.00 0.00 0.00 69 1016.2
20260905143504 86 41 8.7 15.6 0.00 0.00 0.00 69 1016.2
20260905143407 86 37 8.7 15.6 0.00 0.00 0.00 68 1016.1
20260905143313 87 36 8.7 14.8 0.00 0.00 0.00 67 1016.1
20260905143222 87 34 8.7 13.0 0.00 0.00 0.00 68 1016.2
20260905143125 87 35 9.6 13.0 0.00 0.00 0.00 69 1016.2
20260905143004 87 37 9.6 13.9 0.00 0.00 0.00 69 1016.2
20260905142904 86 36 9.6 13.9 0.00 0.00 0.00 68 1016.3
20260905142804 86 36 9.6 13.9 0.00 0.00 0.00 68 1016.3
20260905142704 86 38 9.6 13.9 0.00 0.00 0.00 68 1016.2
20260905142604 86 43 9.6 13.9 0.00 0.00 0.00 68 1016.2
20260905142504 86 44 9.6 13.9 0.00 0.00 0.00 69 1016.2
20260905142404 87 47 9.6 13.9 0.00 0.00 0.00 68 1016.2
20260905142306 87 47 9.6 13.9 0.00 0.00 0.00 68 1016.2
20260905142204 87 48 10.4 13.9 0.00 0.00 0.00 68 1016.2
20260905142104 87 51 10.4 13.9 0.00 0.00 0.00 68 1016.2
20260905142004 87 53 10.4 15.6 0.00 0.00 0.00 68 1016.2
20260905141907 87 54 10.4 19.1 0.00 0.00 0.00 68 1016.3
20260905141811 87 56 10.4 19.1 0.00 0.00 0.00 69 1016.3
20260905141719 87 56 10.4 19.1 0.00 0.00 0.00 68 1016.2
20260905141620 87 55 9.6 19.1 0.00 0.00 0.00 68 1016.2
20260905141504 87 55 9.6 19.1 0.00 0.00 0.00 68 1016.2
20260905141404 86 53 9.6 19.1 0.00 0.00 0.00 68 1016.2
20260905141304 86 53 9.6 19.1 0.00 0.00 0.00 69 1016.2
20260905141204 86 53 9.6 19.1 0.00 0.00 0.00 69 1016.2
20260905141104 86 51 9.6 19.1 0.00 0.00 0.00 69 1016.1
20260905141004 86 49 9.6 19.1 0.00 0.00 0.00 69 1016.1
20260905140904 86 48 9.6 15.6 0.00 0.00 0.00 70 1016.2
20260905140804 86 47 8.7 15.6 0.00 0.00 0.00 70 1016.2
20260905140704 86 46 9.6 14.8 0.00 0.00 0.00 70 1016.2
20260905140604 86 47 9.6 14.8 0.00 0.00 0.00 70 1016.3
20260905140504 86 48 9.6 14.8 0.00 0.00 0.00 70 1016.3
20260905140415 86 49 9.6 14.8 0.00 0.00 0.00 70 1016.4
20260905140313 86 52 9.6 15.6 0.00 0.00 0.00 70 1016.4
20260905140220 86 51 8.7 15.6 0.00 0.00 0.00 70 1016.3
20260905140121 86 52 8.7 15.6 0.00 0.00 0.00 70 1016.4
20260905140004 86 52 8.7 15.6 0.00 0.00 0.00 70 1016.4
20260905135904 86 51 8.7 15.6 0.00 0.00 0.00 70 1016.4
20260905135804 86 51 8.7 15.6 0.00 0.00 0.00 70 1016.4
20260905135704 86 52 8.7 15.6 0.00 0.00 0.00 70 1016.4
20260905135604 86 52 7.8 15.6 0.00 0.00 0.00 70 1016.4
20260905135504 86 53 7.8 15.6 0.00 0.00 0.00 70 1016.4
20260905135404 86 52 7.8 15.6 0.00 0.00 0.00 70 1016.4
20260905135306 86 50 7.8 14.8 0.00 0.00 0.00 70 1016.3
20260905135204 86 50 7.8 14.8 0.00 0.00 0.00 70 1016.3
20260905135103 86 48 7.0 14.8 0.00 0.00 0.00 70 1016.3
20260905135004 86 50 7.0 14.8 0.00 0.00 0.00 70 1016.4
20260905134913 86 49 7.0 14.8 0.00 0.00 0.00 70 1016.4
20260905134814 86 48 7.0 14.8 0.00 0.00 0.00 70 1016.3
20260905134712 86 45 7.0 14.8 0.00 0.00 0.00 70 1016.3
20260905134620 86 44 7.0 14.8 0.00 0.00 0.00 70 1016.2
20260905134504 86 42 6.1 13.9 0.00 0.00 0.00 70 1016.3
20260905134404 86 39 7.0 13.9 0.00 0.00 0.00 70 1016.3
20260905134304 86 40 6.1 13.9 0.00 0.00 0.00 70 1016.4
20260905134204 86 39 6.1 13.9 0.00 0.00 0.00 69 1016.4
20260905134104 87 40 6.1 13.9 0.00 0.00 0.00 68 1016.4
20260905134004 87 38 6.1 12.2 0.00 0.00 0.00 69 1016.3
20260905133904 87 40 6.1 12.2 0.00 0.00 0.00 69 1016.3
20260905133805 87 40 6.1 12.2 0.00 0.00 0.00 69 1016.3
20260905133704 87 40 6.1 12.2 0.00 0.00 0.00 69 1016.3
20260905133604 87 38 6.1 13.0 0.00 0.00 0.00 68 1016.4
20260905133504 87 38 6.1 13.0 0.00 0.00 0.00 68 1016.5
20260905133419 87 38 6.1 13.0 0.00 0.00 0.00 68 1016.5
20260905133308 87 37 6.1 13.9 0.00 0.00 0.00 69 1016.3
20260905133206 87 36 6.1 13.9 0.00 0.00 0.00 69 1016.4
20260905133127 87 35 6.1 13.9 0.00 0.00 0.00 69 1016.4
20260905133004 87 36 6.1 13.9 0.00 0.00 0.00 69 1016.3
20260905132904 87 36 6.1 13.9 0.00 0.00 0.00 69 1016.3
20260905132804 87 39 6.1 13.9 0.00 0.00 0.00 69 1016.5
20260905132704 86 37 6.1 13.9 0.00 0.00 0.00 69 1016.5
20260905132604 87 37 7.0 13.9 0.00 0.00 0.00 68 1016.5
20260905132505 87 36 7.0 13.9 0.00 0.00 0.00 68 1016.4
20260905132403 87 34 7.0 13.9 0.00 0.00 0.00 68 1016.4
20260905132305 87 36 7.0 13.0 0.00 0.00 0.00 69 1016.5
20260905132203 87 37 7.8 13.0 0.00 0.00 0.00 69 1016.4
20260905132103 87 36 7.8 13.0 0.00 0.00 0.00 69 1016.4
20260905132004 86 35 7.8 13.0 0.00 0.00 0.00 69 1016.6
20260905131911 86 35 7.8 13.0 0.00 0.00 0.00 68 1016.6
20260905131814 86 32 7.8 13.0 0.00 0.00 0.00 69 1016.6
20260905131712 86 34 8.7 13.0 0.00 0.00 0.00 69 1016.6
20260905131625 86 35 8.7 13.0 0.00 0.00 0.00 69 1016.6
20260905131505 86 39 8.7 15.6 0.00 0.00 0.00 69 1016.5
20260905131404 86 41 8.7 15.6 0.00 0.00 0.00 69 1016.6
20260905131304 86 43 8.7 15.6 0.00 0.00 0.00 69 1016.6
20260905131205 86 44 8.7 15.6 0.00 0.00 0.00 69 1016.6
20260905131105 86 43 8.7 15.6 0.00 0.00 0.00 69 1016.6
20260905131006 86 43 9.6 15.6 0.00 0.00 0.00 70 1016.5
20260905130904 86 43 9.6 15.6 0.00 0.00 0.00 70 1016.6
20260905130805 86 44 9.6 15.6 0.00 0.00 0.00 69 1016.6
20260905130704 86 46 8.7 15.6 0.00 0.00 0.00 69 1016.6
20260905130605 86 44 8.7 15.6 0.00 0.00 0.00 69 1016.6
20260905130505 86 44 9.6 13.9 0.00 0.00 0.00 69 1016.8
20260905130416 86 43 9.6 14.8 0.00 0.00 0.00 69 1016.7
20260905130315 86 41 9.6 14.8 0.00 0.00 0.00 70 1016.7
20260905130218 86 39 9.6 14.8 0.00 0.00 0.00 69 1016.7
20260905130122 86 39 9.6 14.8 0.00 0.00 0.00 69 1016.7
20260905130005 86 41 9.6 14.8 0.00 0.00 0.00 69 1016.7
20260905125904 86 41 9.6 14.8 0.00 0.00 0.00 70 1016.8
20260905125805 86 40 9.6 14.8 0.00 0.00 0.00 69 1016.8
20260905125704 86 40 9.6 14.8 0.00 0.00 0.00 69 1016.7
20260905125604 86 42 10.4 14.8 0.00 0.00 0.00 69 1016.7
20260905125506 86 46 10.4 18.2 0.00 0.00 0.00 69 1016.7
20260905125404 86 49 9.6 18.2 0.00 0.00 0.00 69 1016.8
20260905125306 86 51 9.6 18.2 0.00 0.00 0.00 69 1016.8
20260905125204 86 50 9.6 18.2 0.00 0.00 0.00 69 1016.7
20260905125104 86 49 9.6 18.2 0.00 0.00 0.00 69 1016.8
20260905125005 86 48 9.6 18.2 0.00 0.00 0.00 69 1016.8
20260905124911 86 48 8.7 18.2 0.00 0.00 0.00 69 1016.8
20260905124813 86 48 8.7 18.2 0.00 0.00 0.00 69 1016.8
20260905124723 86 46 8.7 18.2 0.00 0.00 0.00 68 1016.7
20260905124626 86 45 7.8 18.2 0.00 0.00 0.00 68 1016.8
20260905124505 87 42 7.8 17.4 0.00 0.00 0.00 68 1016.8
20260905124404 87 38 7.8 16.5 0.00 0.00 0.00 68 1016.7
20260905124304 87 36 7.8 16.5 0.00 0.00 0.00 68 1016.8
20260905124205 87 36 7.8 13.9 0.00 0.00 0.00 68 1016.8
20260905124104 87 39 7.8 13.9 0.00 0.00 0.00 68 1017.0
20260905124005 87 43 7.8 13.9 0.00 0.00 0.00 68 1017.0
20260905123905 87 44 7.8 16.5 0.00 0.00 0.00 67 1016.8
20260905123808 87 43 7.8 16.5 0.00 0.00 0.00 68 1016.9
20260905123704 87 45 8.7 16.5 0.00 0.00 0.00 68 1016.9
20260905123604 87 43 8.7 16.5 0.00 0.00 0.00 68 1016.8
20260905123504 87 43 8.7 16.5 0.00 0.00 0.00 68 1016.8
20260905123408 87 43 8.7 16.5 0.00 0.00 0.00 69 1016.8
20260905123313 87 45 8.7 16.5 0.00 0.00 0.00 69 1016.8
20260905123220 87 45 8.7 16.5 0.00 0.00 0.00 68 1016.8
20260905123126 87 46 8.7 16.5 0.00 0.00 0.00 68 1016.8
20260905123005 87 44 8.7 16.5 0.00 0.00 0.00 68 1016.8
20260905122904 87 43 8.7 16.5 0.00 0.00 0.00 67 1016.8
20260905122804 87 43 8.7 16.5 0.00 0.00 0.00 68 1016.8
20260905122704 87 42 8.7 16.5 0.00 0.00 0.00 69 1016.8
20260905122604 86 43 8.7 16.5 0.00 0.00 0.00 69 1016.8
20260905122504 86 42 8.7 16.5 0.00 0.00 0.00 69 1016.8
20260905122404 86 42 7.8 16.5 0.00 0.00 0.00 69 1016.8
20260905122306 86 44 7.8 16.5 0.00 0.00 0.00 69 1016.9
20260905122204 86 44 7.8 16.5 0.00 0.00 0.00 69 1016.9
20260905122104 87 43 7.8 16.5 0.00 0.00 0.00 68 1016.9
20260905122004 87 42 7.8 16.5 0.00 0.00 0.00 68 1016.8
20260905121904 87 41 7.8 16.5 0.00 0.00 0.00 68 1016.8
20260905121810 87 39 7.8 16.5 0.00 0.00 0.00 68 1016.9
20260905121718 87 39 7.8 16.5 0.00 0.00 0.00 68 1016.9
20260905121620 87 40 7.8 16.5 0.00 0.00 0.00 67 1016.9
20260905121504 87 42 7.8 16.5 0.00 0.00 0.00 67 1016.9
20260905121404 87 42 7.8 16.5 0.00 0.00 0.00 67 1016.9
20260905121304 87 39 7.8 16.5 0.00 0.00 0.00 67 1016.8
20260905121204 87 39 7.8 13.9 0.00 0.00 0.00 67 1017.0
20260905121104 87 40 7.8 13.9 0.00 0.00 0.00 68 1017.0
20260905121005 87 41 7.8 14.8 0.00 0.00 0.00 67 1016.9
20260905120904 87 39 7.8 14.8 0.00 0.00 0.00 67 1016.9
20260905120804 87 42 7.8 14.8 0.00 0.00 0.00 67 1017.0
20260905120704 87 43 7.0 14.8 0.00 0.00 0.00 67 1016.9
20260905120604 87 43 7.0 14.8 0.00 0.00 0.00 67 1016.9
20260905120504 87 41 7.0 14.8 0.00 0.00 0.00 68 1016.9
20260905120411 86 39 7.0 14.8 0.00 0.00 0.00 68 1016.9
20260905120315 86 38 7.0 14.8 0.00 0.00 0.00 68 1017.0
20260905120205 86 39 7.0 14.8 0.00 0.00 0.00 67 1017.0
20260905120120 87 39 7.0 14.8 0.00 0.00 0.00 67 1017.0
20260905120004 87 37 7.0 14.8 0.00 0.00 0.00 67 1017.0
20260905115904 87 37 7.0 14.8 0.00 0.00 0.00 68 1017.0
20260905115804 87 37 7.8 14.8 0.00 0.00 0.00 68 1017.0
20260905115704 87 38 7.8 14.8 0.00 0.00 0.00 68 1017.1
20260905115604 87 37 7.8 14.8 0.00 0.00 0.00 67 1017.1
20260905115504 87 37 7.8 14.8 0.00 0.00 0.00 67 1017.1
20260905115404 87 39 7.8 14.8 0.00 0.00 0.00 67 1017.0
20260905115306 87 41 7.8 14.8 0.00 0.00 0.00 67 1017.0
20260905115204 87 39 7.8 13.9 0.00 0.00 0.00 67 1017.0
20260905115104 87 41 7.8 15.6 0.00 0.00 0.00 67 1017.0
20260905115004 86 42 7.8 15.6 0.00 0.00 0.00 67 1017.1
20260905114917 87 43 7.8 15.6 0.00 0.00 0.00 67 1017.1
20260905114816 87 43 7.8 15.6 0.00 0.00 0.00 67 1017.0
20260905114706 87 42 7.8 15.6 0.00 0.00 0.00 67 1017.1
20260905114623 87 43 7.8 15.6 0.00 0.00 0.00 67 1017.1
20260905114504 87 43 7.8 15.6 0.00 0.00 0.00 67 1017.1
20260905114404 87 42 7.8 15.6 0.00 0.00 0.00 67 1017.1
20260905114304 87 41 7.8 15.6 0.00 0.00 0.00 67 1017.1
20260905114204 87 41 7.8 15.6 0.00 0.00 0.00 67 1017.1
20260905114104 87 38 7.8 12.2 0.00 0.00 0.00 67 1017.1
20260905114004 87 36 7.8 12.2 0.00 0.00 0.00 67 1017.1
20260905113904 87 37 7.8 13.0 0.00 0.00 0.00 66 1017.1
20260905113804 87 39 8.7 13.0 0.00 0.00 0.00 67 1017.1
20260905113704 87 38 8.7 13.0 0.00 0.00 0.00 66 1017.2
20260905113604 87 39 8.7 13.0 0.00 0.00 0.00 66 1017.1
20260905113504 87 39 8.7 13.0 0.00 0.00 0.00 65 1017.1
20260905113409 87 40 8.7 13.0 0.00 0.00 0.00 66 1017.0
20260905113309 87 41 8.7 13.0 0.00 0.00 0.00 66 1017.0
20260905113216 87 42 8.7 13.0 0.00 0.00 0.00 66 1017.1
20260905113120 87 43 8.7 13.0 0.00 0.00 0.00 66 1017.1
20260905113005 87 44 8.7 13.0 0.00 0.00 0.00 66 1017.1
20260905112904 87 45 8.7 14.8 0.00 0.00 0.00 66 1017.1
20260905112804 87 45 8.7 14.8 0.00 0.00 0.00 66 1017.1
20260905112704 87 45 8.7 14.8 0.00 0.00 0.00 66 1017.1
20260905112604 87 47 7.8 14.8 0.00 0.00 0.00 66 1017.1
20260905112504 87 48 7.8 14.8 0.00 0.00 0.00 66 1017.1
20260905112404 87 48 7.8 14.8 0.00 0.00 0.00 66 1017.2
20260905112305 87 46 7.8 14.8 0.00 0.00 0.00 66 1017.2
20260905112204 87 47 7.0 14.8 0.00 0.00 0.00 65 1017.2
20260905112104 87 48 7.0 14.8 0.00 0.00 0.00 65 1017.2
20260905112004 88 46 7.0 14.8 0.00 0.00 0.00 65 1017.2
20260905111906 88 44 7.0 14.8 0.00 0.00 0.00 65 1017.1
20260905111811 88 40 7.0 13.9 0.00 0.00 0.00 64 1017.3
20260905111717 88 40 7.0 13.9 0.00 0.00 0.00 64 1017.3
20260905111620 88 36 7.8 12.2 0.00 0.00 0.00 65 1017.2
20260905111504 88 30 7.8 11.3 0.00 0.00 0.00 65 1017.2
20260905111404 88 30 7.8 11.3 0.00 0.00 0.00 65 1017.0
20260905111304 88 32 7.8 12.2 0.00 0.00 0.00 65 1017.1
20260905111204 88 33 7.8 12.2 0.00 0.00 0.00 65 1017.1
20260905111104 88 33 7.8 13.0 0.00 0.00 0.00 65 1017.1
20260905111004 88 35 7.8 14.8 0.00 0.00 0.00 65 1017.1
20260905110904 87 37 7.8 14.8 0.00 0.00 0.00 65 1017.1
20260905110804 87 38 7.8 14.8 0.00 0.00 0.00 65 1017.1
20260905110704 87 37 7.8 14.8 0.00 0.00 0.00 65 1017.1
20260905110604 87 38 7.8 14.8 0.00 0.00 0.00 66 1017.2
20260905110504 87 37 7.8 14.8 0.00 0.00 0.00 66 1017.2
20260905110418 87 36 7.8 14.8 0.00 0.00 0.00 66 1017.2
20260905110321 87 34 7.8 14.8 0.00 0.00 0.00 66 1017.2
20260905110207 87 34 7.8 14.8 0.00 0.00 0.00 66 1017.2
20260905110124 87 34 8.7 14.8 0.00 0.00 0.00 65 1017.1
20260905110004 87 34 8.7 13.9 0.00 0.00 0.00 66 1017.1
20260905105904 87 32 8.7 13.9 0.00 0.00 0.00 66 1017.1
20260905105804 87 34 8.7 13.9 0.00 0.00 0.00 65 1017.1
20260905105704 87 40 8.7 15.6 0.00 0.00 0.00 66 1017.1
20260905105604 87 42 8.7 15.6 0.00 0.00 0.00 66 1017.2
20260905105504 87 44 8.7 15.6 0.00 0.00 0.00 66 1017.0
20260905105403 87 47 8.7 15.6 0.00 0.00 0.00 65 1017.0
20260905105306 87 48 8.7 15.6 0.00 0.00 0.00 65 1017.1
20260905105204 87 47 8.7 15.6 0.00 0.00 0.00 65 1017.0
20260905105104 87 47 8.7 15.6 0.00 0.00 0.00 65 1017.0
20260905105004 87 46 8.7 15.6 0.00 0.00 0.00 64 1017.0
20260905104911 87 46 8.7 15.6 0.00 0.00 0.00 65 1017.0
20260905104820 87 45 8.7 15.6 0.00 0.00 0.00 65 1017.1
20260905104712 87 43 8.7 13.9 0.00 0.00 0.00 65 1017.1
20260905104626 87 41 7.8 13.0 0.00 0.00 0.00 65 1017.1
20260905104505 87 41 7.8 13.9 0.00 0.00 0.00 65 1017.0
20260905104405 87 39 8.7 13.9 0.00 0.00 0.00 65 1017.0
20260905104304 87 37 8.7 14.8 0.00 0.00 0.00 65 1016.9
20260905104205 87 38 8.7 14.8 0.00 0.00 0.00 65 1016.9
20260905104105 87 39 8.7 14.8 0.00 0.00 0.00 66 1016.9
20260905104005 87 38 8.7 14.8 0.00 0.00 0.00 66 1017.0
20260905103905 87 36 8.7 14.8 0.00 0.00 0.00 66 1017.0
20260905103804 87 35 8.7 14.8 0.00 0.00 0.00 66 1016.9
20260905103704 87 32 8.7 14.8 0.00 0.00 0.00 66 1016.9
20260905103605 87 31 8.7 14.8 0.00 0.00 0.00 66 1016.9
20260905103504 86 32 9.6 14.8 0.00 0.00 0.00 66 1017.0
20260905103420 86 33 9.6 14.8 0.00 0.00 0.00 66 1017.0
20260905103319 86 37 9.6 14.8 0.00 0.00 0.00 66 1016.9
20260905103208 87 36 9.6 13.9 0.00 0.00 0.00 66 1017.0
20260905103120 87 38 9.6 13.9 0.00 0.00 0.00 66 1017.0
20260905103004 87 40 9.6 13.9 0.00 0.00 0.00 66 1017.0
20260905102904 87 43 9.6 13.9 0.00 0.00 0.00 66 1017.1
20260905102805 87 43 8.7 13.9 0.00 0.00 0.00 66 1017.1
20260905102704 87 45 8.7 13.9 0.00 0.00 0.00 66 1017.2
20260905102604 87 47 8.7 15.6 0.00 0.00 0.00 67 1017.2
20260905102504 87 47 8.7 15.6 0.00 0.00 0.00 67 1017.1
20260905102404 87 45 8.7 15.6 0.00 0.00 0.00 66 1017.1
20260905102306 87 45 8.7 15.6 0.00 0.00 0.00 66 1017.1
20260905102204 87 45 7.8 15.6 0.00 0.00 0.00 66 1017.1
20260905102104 87 44 7.8 15.6 0.00 0.00 0.00 66 1017.1
20260905102004 87 44 7.8 15.6 0.00 0.00 0.00 66 1017.1
20260905101922 87 44 7.8 15.6 0.00 0.00 0.00 66 1017.0
20260905101821 87 43 7.8 15.6 0.00 0.00 0.00 65 1017.0
20260905101711 87 43 7.8 15.6 0.00 0.00 0.00 65 1017.2
20260905101631 87 43 7.8 13.9 0.00 0.00 0.00 65 1017.2
20260905101505 87 43 7.8 13.9 0.00 0.00 0.00 66 1017.1
20260905101404 87 45 7.8 13.9 0.00 0.00 0.00 66 1017.0
20260905101305 87 45 7.8 13.9 0.00 0.00 0.00 66 1017.0
20260905101204 87 44 7.8 13.9 0.00 0.00 0.00 66 1017.1
20260905101104 87 43 7.8 14.8 0.00 0.00 0.00 66 1017.0
20260905101005 87 44 7.8 14.8 0.00 0.00 0.00 65 1017.0
20260905100904 87 44 7.8 14.8 0.00 0.00 0.00 66 1017.1
20260905100804 87 47 7.8 14.8 0.00 0.00 0.00 66 1017.1
20260905100705 87 47 7.8 14.8 0.00 0.00 0.00 66 1017.0
20260905100604 87 43 7.8 14.8 0.00 0.00 0.00 65 1017.1
20260905100504 87 41 7.8 14.8 0.00 0.00 0.00 65 1017.1
20260905100408 87 39 7.8 14.8 0.00 0.00 0.00 65 1017.0
20260905100313 87 38 7.8 14.8 0.00 0.00 0.00 65 1017.0
20260905100216 87 38 7.8 14.8 0.00 0.00 0.00 64 1017.1
20260905100125 87 38 8.7 14.8 0.00 0.00 0.00 65 1016.9
20260905100004 87 37 8.7 13.0 0.00 0.00 0.00 65 1016.9
20260905095904 87 37 8.7 13.0 0.00 0.00 0.00 65 1017.0
20260905095804 87 37 8.7 15.6 0.00 0.00 0.00 65 1017.0
20260905095704 87 38 8.7 15.6 0.00 0.00 0.00 66 1017.0
20260905095604 87 41 9.6 15.6 0.00 0.00 0.00 66 1016.9
20260905095504 87 41 9.6 15.6 0.00 0.00 0.00 66 1016.9
20260905095404 87 43 9.6 15.6 0.00 0.00 0.00 66 1016.9
20260905095306 86 45 9.6 15.6 0.00 0.00 0.00 67 1016.9
20260905095204 86 46 9.6 15.6 0.00 0.00 0.00 67 1016.9
20260905095104 86 47 9.6 15.6 0.00 0.00 0.00 67 1016.9
20260905095004 86 47 9.6 15.6 0.00 0.00 0.00 66 1016.9
20260905094919 86 49 9.6 15.6 0.00 0.00 0.00 66 1017.0
20260905094818 86 49 9.6 14.8 0.00 0.00 0.00 67 1017.0
20260905094715 86 50 9.6 13.0 0.00 0.00 0.00 66 1017.0
20260905094622 86 51 9.6 13.0 0.00 0.00 0.00 66 1017.0
20260905094505 86 53 8.7 13.0 0.00 0.00 0.00 66 1017.0
20260905094404 87 53 8.7 13.9 0.00 0.00 0.00 66 1017.0
20260905094305 87 54 8.7 13.9 0.00 0.00 0.00 66 1017.0
20260905094215 87 53 8.7 13.9 0.00 0.00 0.00 66 1017.0
20260905094104 87 53 8.7 13.9 0.00 0.00 0.00 66 1017.0
20260905094004 87 51 8.7 13.9 0.00 0.00 0.00 65 1016.9
20260905093904 87 49 8.7 13.9 0.00 0.00 0.00 65 1016.9
20260905093805 87 48 8.7 13.9 0.00 0.00 0.00 66 1017.0
20260905093704 87 49 9.6 13.9 0.00 0.00 0.00 66 1017.0
20260905093605 86 48 9.6 13.9 0.00 0.00 0.00 66 1017.1
20260905093505 86 49 9.6 13.9 0.00 0.00 0.00 66 1016.9
20260905093413 86 49 9.6 13.9 0.00 0.00 0.00 65 1016.9
20260905093314 86 49 9.6 13.9 0.00 0.00 0.00 66 1017.0
20260905093217 86 50 9.6 13.9 0.00 0.00 0.00 67 1017.0
20260905093125 86 50 9.6 14.8 0.00 0.00 0.00 67 1016.9
20260905093004 86 51 9.6 14.8 0.00 0.00 0.00 67 1017.0
20260905092904 86 52 9.6 14.8 0.00 0.00 0.00 66 1017.0
20260905092804 86 54 9.6 14.8 0.00 0.00 0.00 66 1017.0
20260905092704 86 53 8.7 14.8 0.00 0.00 0.00 66 1017.0
20260905092604 86 53 8.7 15.6 0.00 0.00 0.00 67 1017.0
20260905092504 86 54 8.7 15.6 0.00 0.00 0.00 67 1017.0
20260905092404 86 53 8.7 15.6 0.00 0.00 0.00 67 1017.0
20260905092306 86 51 8.7 15.6 0.00 0.00 0.00 67 1017.0
20260905092204 86 50 8.7 15.6 0.00 0.00 0.00 67 1017.0
20260905092104 86 49 8.7 15.6 0.00 0.00 0.00 67 1017.0
20260905092004 86 50 8.7 15.6 0.00 0.00 0.00 66 1017.0
20260905091924 86 50 8.7 15.6 0.00 0.00 0.00 66 1017.0
20260905091815 86 48 8.7 15.6 0.00 0.00 0.00 66 1017.0
20260905091711 86 47 8.7 15.6 0.00 0.00 0.00 66 1017.0
20260905091631 86 47 8.7 15.6 0.00 0.00 0.00 66 1017.0
20260905091504 86 47 8.7 13.0 0.00 0.00 0.00 66 1017.0
20260905091404 87 45 8.7 13.0 0.00 0.00 0.00 66 1017.0
20260905091304 87 46 8.7 13.0 0.00 0.00 0.00 66 1017.0
20260905091104 86 48 8.7 13.0 0.00 0.00 0.00 66 1017.0
20260905091004 86 48 8.7 14.8 0.00 0.00 0.00 66 1017.1
20260905090904 86 49 8.7 14.8 0.00 0.00 0.00 67 1017.1
20260905090804 86 51 8.7 14.8 0.00 0.00 0.00 66 1017.1
20260905090704 86 52 8.7 14.8 0.00 0.00 0.00 66 1017.1
20260905090604 86 52 7.8 14.8 0.00 0.00 0.00 66 1017.1
20260905090504 86 50 7.8 14.8 0.00 0.00 0.00 66 1017.2
20260905090419 86 51 7.8 14.8 0.00 0.00 0.00 66 1017.2
20260905090317 86 49 7.8 14.8 0.00 0.00 0.00 65 1017.2
20260905090210 87 49 7.8 14.8 0.00 0.00 0.00 65 1017.1
20260905090126 87 48 7.8 14.8 0.00 0.00 0.00 65 1017.1
20260905090004 87 46 7.8 13.9 0.00 0.00 0.00 65 1017.1
20260905085904 87 44 7.8 13.9 0.00 0.00 0.00 65 1017.2
20260905085804 87 43 7.8 12.2 0.00 0.00 0.00 65 1017.2
20260905085704 87 42 7.8 12.2 0.00 0.00 0.00 65 1017.1
20260905085604 87 41 7.8 12.2 0.00 0.00 0.00 65 1017.2
20260905085504 87 46 7.8 12.2 0.00 0.00 0.00 65 1017.2
20260905085404 87 45 7.8 12.2 0.00 0.00 0.00 66 1017.2
20260905085306 86 46 7.8 12.2 0.00 0.00 0.00 66 1017.2
20260905085204 86 48 7.8 11.3 0.00 0.00 0.00 67 1017.2
20260905085104 86 49 7.8 11.3 0.00 0.00 0.00 67 1017.2
20260905085004 86 50 7.8 11.3 0.00 0.00 0.00 67 1017.2
20260905084912 86 50 7.8 11.3 0.00 0.00 0.00 67 1017.3
20260905084811 86 50 7.8 12.2 0.00 0.00 0.00 67 1017.3
20260905084717 86 51 7.8 12.2 0.00 0.00 0.00 66 1017.3
20260905084620 86 52 7.8 13.0 0.00 0.00 0.00 68 1017.2
20260905084505 86 51 7.8 13.0 0.00 0.00 0.00 68 1017.2
20260905084404 86 53 7.8 13.0 0.00 0.00 0.00 67 1017.2
20260905084304 86 52 7.0 13.0 0.00 0.00 0.00 67 1017.2
20260905084204 86 51 7.0 13.0 0.00 0.00 0.00 67 1017.2
20260905084104 86 51 7.0 13.0 0.00 0.00 0.00 67 1017.2
20260905084005 86 50 7.0 13.0 0.00 0.00 0.00 66 1017.2
20260905083904 86 51 7.0 13.0 0.00 0.00 0.00 66 1017.3
20260905083804 86 52 7.0 13.0 0.00 0.00 0.00 67 1017.2
20260905083704 86 49 7.0 13.0 0.00 0.00 0.00 67 1017.2
20260905083604 86 47 7.0 12.2 0.00 0.00 0.00 67 1017.1
20260905083504 86 45 7.0 10.4 0.00 0.00 0.00 66 1017.1
20260905083416 86 44 7.0 10.4 0.00 0.00 0.00 67 1017.2
20260905083318 86 44 7.0 10.4 0.00 0.00 0.00 67 1017.2
20260905083215 86 47 7.0 12.2 0.00 0.00 0.00 67 1017.2
20260905083124 86 47 7.0 12.2 0.00 0.00 0.00 67 1017.2
20260905083004 86 47 7.0 12.2 0.00 0.00 0.00 67 1017.2
20260905082904 86 45 7.0 12.2 0.00 0.00 0.00 67 1017.2
20260905082804 86 44 7.0 12.2 0.00 0.00 0.00 68 1017.2
20260905082704 86 44 7.0 12.2 0.00 0.00 0.00 68 1017.2
20260905082604 86 44 7.0 12.2 0.00 0.00 0.00 68 1017.2
20260905082504 86 44 7.0 12.2 0.00 0.00 0.00 68 1017.2
20260905082404 86 43 7.0 12.2 0.00 0.00 0.00 68 1017.2
20260905082307 86 41 6.1 11.3 0.00 0.00 0.00 68 1017.2
20260905082204 86 40 6.1 11.3 0.00 0.00 0.00 68 1017.2
20260905082104 86 39 6.1 11.3 0.00 0.00 0.00 68 1017.2
20260905082004 86 38 6.1 11.3 0.00 0.00 0.00 68 1017.2
20260905081905 86 37 6.1 11.3 0.00 0.00 0.00 67 1017.2
20260905081816 86 37 6.1 11.3 0.00 0.00 0.00 66 1017.1
20260905081709 86 36 6.1 11.3 0.00 0.00 0.00 67 1017.1
20260905081626 87 35 6.1 11.3 0.00 0.00 0.00 67 1017.2
20260905081504 86 36 6.1 11.3 0.00 0.00 0.00 67 1017.2
20260905081404 86 36 6.1 11.3 0.00 0.00 0.00 67 1017.2
20260905081304 86 39 6.1 11.3 0.00 0.00 0.00 67 1017.2
20260905081205 86 40 6.1 11.3 0.00 0.00 0.00 67 1017.2
20260905081105 86 41 6.1 10.4 0.00 0.00 0.00 68 1017.2
20260905081005 86 42 6.1 10.4 0.00 0.00 0.00 68 1017.2
20260905080905 86 44 6.1 10.4 0.00 0.00 0.00 67 1017.2
20260905080804 86 45 6.1 10.4 0.00 0.00 0.00 67 1017.2
20260905080705 86 47 6.1 10.4 0.00 0.00 0.00 67 1017.1
20260905080605 86 49 6.1 10.4 0.00 0.00 0.00 67 1017.1
20260905080505 86 50 6.1 10.4 0.00 0.00 0.00 67 1017.2
20260905080421 86 51 6.1 10.4 0.00 0.00 0.00 67 1017.2
20260905080307 86 52 6.1 10.4 0.00 0.00 0.00 67 1017.1
20260905080211 86 52 6.1 10.4 0.00 0.00 0.00 67 1017.1
20260905080125 86 53 7.0 10.4 0.00 0.00 0.00 67 1017.1